Wetterdaten: Mittwoch, 25.07.2018
Datum Zeit Temp. Aussen Temp. o. S. +5cm Feuchte Auss Luftdruck Regen Sonnenschein Regendauer Solar Windben Empfang
25.07.2018 00:00 25,1 C 24,4 C 23,3 C 68 % 1011,2 hPa 0,0 l/m 0 min 0 min 0 W/m 9,0 km/h (2 Bft) 100,00 %
25.07.2018 00:02 25,1 C 24,4 C 23,3 C 69 % 1011,2 hPa 0,0 l/m 0 min 0 min 0 W/m 9,0 km/h (2 Bft) 100,00 %
25.07.2018 00:04 25,1 C 24,4 C 23,3 C 69 % 1011,3 hPa 0,0 l/m 0 min 0 min 0 W/m 9,0 km/h (2 Bft) 100,00 %
25.07.2018 00:08 25,1 C 24,4 C 23,3 C 69 % 1011,3 hPa 0,0 l/m 0 min 0 min 0 W/m 11,3 km/h (2 Bft) 98,78 %
25.07.2018 00:10 25,1 C 24,4 C 23,3 C 69 % 1011,3 hPa 0,0 l/m 0 min 0 min 0 W/m 4,5 km/h (1 Bft) 100,00 %
25.07.2018 00:12 25,1 C 24,4 C 23,3 C 69 % 1011,3 hPa 0,0 l/m 0 min 0 min 0 W/m 6,8 km/h (2 Bft) 100,00 %
25.07.2018 00:14 25,1 C 24,4 C 23,3 C 70 % 1011,3 hPa 0,0 l/m 0 min 0 min 0 W/m 11,3 km/h (2 Bft) 98,00 %
25.07.2018 00:16 25,1 C 23,9 C 23,3 C 70 % 1011,3 hPa 0,0 l/m 0 min 0 min 0 W/m 4,5 km/h (1 Bft) 97,92 %
25.07.2018 00:18 25,1 C 23,9 C 23,3 C 70 % 1011,4 hPa 0,0 l/m 0 min 0 min 0 W/m 9,0 km/h (2 Bft) 100,00 %
25.07.2018 00:20 25,1 C 23,9 C 23,3 C 70 % 1011,4 hPa 0,0 l/m 0 min 0 min 0 W/m 9,0 km/h (2 Bft) 95,74 %
25.07.2018 00:22 25,1 C 23,9 C 23,3 C 70 % 1011,4 hPa 0,0 l/m 0 min 0 min 0 W/m 11,3 km/h (2 Bft) 97,87 %
25.07.2018 00:24 25,1 C 24,4 C 23,3 C 70 % 1011,5 hPa 0,0 l/m 0 min 0 min 0 W/m 11,3 km/h (2 Bft) 97,83 %
25.07.2018 00:26 25,1 C 24,4 C 23,3 C 70 % 1011,5 hPa 0,0 l/m 0 min 0 min 0 W/m 11,3 km/h (2 Bft) 97,87 %
25.07.2018 00:28 25,1 C 23,9 C 23,3 C 70 % 1011,5 hPa 0,0 l/m 0 min 0 min 0 W/m 6,8 km/h (2 Bft) 97,87 %
25.07.2018 00:30 25,1 C 23,9 C 23,3 C 70 % 1011,5 hPa 0,0 l/m 0 min 0 min 0 W/m 6,8 km/h (2 Bft) 97,87 %
25.07.2018 00:32 25,1 C 23,9 C 23,3 C 71 % 1011,4 hPa 0,0 l/m 0 min 0 min 0 W/m 11,3 km/h (2 Bft) 97,62 %
25.07.2018 00:34 25,1 C 23,9 C 23,3 C 71 % 1011,5 hPa 0,0 l/m 0 min 0 min 0 W/m 4,5 km/h (1 Bft) 98,00 %
25.07.2018 00:36 25,1 C 23,9 C 23,3 C 71 % 1011,5 hPa 0,0 l/m 0 min 0 min 0 W/m 9,0 km/h (2 Bft) 97,87 %
25.07.2018 00:38 25,1 C 23,9 C 23,3 C 71 % 1011,5 hPa 0,0 l/m 0 min 0 min 0 W/m 6,8 km/h (2 Bft) 95,83 %
25.07.2018 00:40 25,1 C 23,9 C 23,3 C 71 % 1011,5 hPa 0,0 l/m 0 min 0 min 0 W/m 6,8 km/h (2 Bft) 97,87 %
25.07.2018 00:42 25,1 C 23,9 C 23,3 C 71 % 1011,5 hPa 0,0 l/m 0 min 0 min 0 W/m 11,3 km/h (2 Bft) 93,62 %
25.07.2018 00:44 25,1 C 23,9 C 23,3 C 71 % 1011,4 hPa 0,0 l/m 0 min 0 min 0 W/m 6,8 km/h (2 Bft) 97,87 %
25.07.2018 00:46 25,1 C 23,9 C 23,3 C 71 % 1011,4 hPa 0,0 l/m 0 min 0 min 0 W/m 9,0 km/h (2 Bft) 95,24 %
25.07.2018 00:48 25,0 C 23,9 C 23,3 C 71 % 1011,4 hPa 0,0 l/m 0 min 0 min 0 W/m 4,5 km/h (1 Bft) 95,74 %
25.07.2018 00:50 25,0 C 23,9 C 23,3 C 71 % 1011,5 hPa 0,0 l/m 0 min 0 min 0 W/m 9,0 km/h (2 Bft) 95,74 %
25.07.2018 00:52 25,0 C 23,9 C 23,3 C 71 % 1011,5 hPa 0,0 l/m 0 min 0 min 0 W/m 6,8 km/h (2 Bft) 95,74 %
25.07.2018 00:54 24,9 C 23,9 C 23,3 C 71 % 1011,5 hPa 0,0 l/m 0 min 0 min 0 W/m 4,5 km/h (1 Bft) 97,87 %
25.07.2018 00:56 24,9 C 23,9 C 23,3 C 72 % 1011,5 hPa 0,0 l/m 0 min 0 min 0 W/m 6,8 km/h (2 Bft) 97,83 %
25.07.2018 00:58 24,9 C 23,9 C 22,8 C 72 % 1011,5 hPa 0,0 l/m 0 min 0 min 0 W/m 9,0 km/h (2 Bft) 93,62 %
25.07.2018 01:00 24,9 C 23,3 C 22,8 C 72 % 1011,5 hPa 0,0 l/m 0 min 0 min 0 W/m 4,5 km/h (1 Bft) 95,74 %
25.07.2018 01:02 24,9 C 23,3 C 22,8 C 72 % 1011,5 hPa 0,0 l/m 0 min 0 min 0 W/m 4,5 km/h (1 Bft) 97,87 %
25.07.2018 01:04 24,8 C 23,3 C 22,8 C 72 % 1011,5 hPa 0,0 l/m 0 min 0 min 0 W/m 6,8 km/h (2 Bft) 98,00 %
25.07.2018 01:06 24,8 C 23,3 C 22,8 C 72 % 1011,5 hPa 0,0 l/m 0 min 0 min 0 W/m 4,5 km/h (1 Bft) 95,74 %
25.07.2018 01:08 24,8 C 23,3 C 22,8 C 72 % 1011,5 hPa 0,0 l/m 0 min 0 min 0 W/m 6,8 km/h (2 Bft) 97,92 %
25.07.2018 01:10 24,8 C 23,3 C 22,8 C 72 % 1011,5 hPa 0,0 l/m 0 min 0 min 0 W/m 6,8 km/h (2 Bft) 97,83 %
25.07.2018 01:12 24,7 C 23,3 C 22,8 C 72 % 1011,5 hPa 0,0 l/m 0 min 0 min 0 W/m 4,5 km/h (1 Bft) 97,67 %
25.07.2018 01:14 24,7 C 23,3 C 22,8 C 72 % 1011,5 hPa 0,0 l/m 0 min 0 min 0 W/m 4,5 km/h (1 Bft) 94,00 %
25.07.2018 01:16 24,7 C 23,3 C 22,8 C 73 % 1011,5 hPa 0,0 l/m 0 min 0 min 0 W/m 9,0 km/h (2 Bft) 97,87 %
25.07.2018 01:18 24,6 C 23,3 C 22,8 C 73 % 1011,5 hPa 0,0 l/m 0 min 0 min 0 W/m 6,8 km/h (2 Bft) 97,83 %
25.07.2018 01:20 24,6 C 23,3 C 22,8 C 73 % 1011,5 hPa 0,0 l/m 0 min 0 min 0 W/m 6,8 km/h (2 Bft) 97,87 %
25.07.2018 01:22 24,6 C 23,3 C 22,8 C 73 % 1011,5 hPa 0,0 l/m 0 min 0 min 0 W/m 2,3 km/h (1 Bft) 97,92 %
25.07.2018 01:24 24,5 C 22,8 C 22,8 C 73 % 1011,5 hPa 0,0 l/m 0 min 0 min 0 W/m 4,5 km/h (1 Bft) 97,87 %
25.07.2018 01:26 24,5 C 22,8 C 22,8 C 73 % 1011,5 hPa 0,0 l/m 0 min 0 min 0 W/m 4,5 km/h (1 Bft) 97,87 %
25.07.2018 01:28 24,5 C 22,8 C 22,2 C 73 % 1011,5 hPa 0,0 l/m 0 min 0 min 0 W/m 0,0 km/h (0 Bft) 97,87 %
25.07.2018 01:30 24,4 C 22,8 C 22,8 C 73 % 1011,5 hPa 0,0 l/m 0 min 0 min 0 W/m 6,8 km/h (2 Bft) 97,67 %
25.07.2018 01:32 24,4 C 22,8 C 22,8 C 73 % 1011,4 hPa 0,0 l/m 0 min 0 min 0 W/m 4,5 km/h (1 Bft) 97,83 %
25.07.2018 01:34 24,4 C 22,8 C 22,8 C 73 % 1011,5 hPa 0,0 l/m 0 min 0 min 0 W/m 2,3 km/h (1 Bft) 97,87 %
25.07.2018 01:36 24,3 C 22,8 C 22,2 C 73 % 1011,5 hPa 0,0 l/m 0 min 0 min 0 W/m 4,5 km/h (1 Bft) 98,00 %
25.07.2018 01:38 24,3 C 22,8 C 22,2 C 74 % 1011,6 hPa 0,0 l/m 0 min 0 min 0 W/m 6,8 km/h (2 Bft) 97,87 %
25.07.2018 01:40 24,3 C 22,8 C 22,2 C 74 % 1011,6 hPa 0,0 l/m 0 min 0 min 0 W/m 2,3 km/h (1 Bft) 97,87 %
25.07.2018 01:42 24,3 C 22,8 C 22,2 C 74 % 1011,5 hPa 0,0 l/m 0 min 0 min 0 W/m 2,3 km/h (1 Bft) 97,92 %
25.07.2018 01:44 24,3 C 22,8 C 22,2 C 74 % 1011,5 hPa 0,0 l/m 0 min 0 min 0 W/m 4,5 km/h (1 Bft) 95,74 %
25.07.2018 01:46 24,2 C 22,8 C 22,2 C 74 % 1011,5 hPa 0,0 l/m 0 min 0 min 0 W/m 2,3 km/h (1 Bft) 97,62 %
25.07.2018 01:48 24,2 C 22,8 C 22,2 C 74 % 1011,5 hPa 0,0 l/m 0 min 0 min 0 W/m 2,3 km/h (1 Bft) 95,74 %
25.07.2018 01:50 24,2 C 22,8 C 22,2 C 74 % 1011,5 hPa 0,0 l/m 0 min 0 min 0 W/m 6,8 km/h (2 Bft) 100,00 %
25.07.2018 01:52 24,2 C 22,8 C 22,2 C 74 % 1011,5 hPa 0,0 l/m 0 min 0 min 0 W/m 6,8 km/h (2 Bft) 100,00 %
25.07.2018 01:54 24,1 C 22,8 C 22,2 C 74 % 1011,5 hPa 0,0 l/m 0 min 0 min 0 W/m 6,8 km/h (2 Bft) 100,00 %
25.07.2018 01:56 24,1 C 22,8 C 22,2 C 74 % 1011,4 hPa 0,0 l/m 0 min 0 min 0 W/m 4,5 km/h (1 Bft) 100,00 %
25.07.2018 01:58 24,0 C 22,2 C 22,2 C 75 % 1011,4 hPa 0,0 l/m 0 min 0 min 0 W/m 0,0 km/h (0 Bft) 100,00 %
25.07.2018 02:00 24,0 C 22,2 C 21,7 C 75 % 1011,4 hPa 0,0 l/m 0 min 0 min 0 W/m 0,0 km/h (0 Bft) 100,00 %
25.07.2018 02:02 23,9 C 22,2 C 21,7 C 75 % 1011,4 hPa 0,0 l/m 0 min 0 min 0 W/m 2,3 km/h (1 Bft) 100,00 %
25.07.2018 02:04 23,9 C 22,2 C 22,2 C 75 % 1011,5 hPa 0,0 l/m 0 min 0 min 0 W/m 9,0 km/h (2 Bft) 100,00 %
25.07.2018 02:06 23,9 C 22,2 C 22,2 C 75 % 1011,5 hPa 0,0 l/m 0 min 0 min 0 W/m 9,0 km/h (2 Bft) 100,00 %
25.07.2018 02:08 23,9 C 22,2 C 22,2 C 75 % 1011,5 hPa 0,0 l/m 0 min 0 min 0 W/m 6,8 km/h (2 Bft) 100,00 %
25.07.2018 02:10 23,8 C 22,2 C 22,2 C 75 % 1011,5 hPa 0,0 l/m 0 min 0 min 0 W/m 4,5 km/h (1 Bft) 97,62 %
25.07.2018 02:12 23,8 C 22,2 C 22,2 C 75 % 1011,5 hPa 0,0 l/m 0 min 0 min 0 W/m 9,0 km/h (2 Bft) 100,00 %
25.07.2018 02:14 23,8 C 22,2 C 22,2 C 75 % 1011,5 hPa 0,0 l/m 0 min 0 min 0 W/m 4,5 km/h (1 Bft) 100,00 %
25.07.2018 02:16 23,7 C 22,2 C 22,2 C 76 % 1011,5 hPa 0,0 l/m 0 min 0 min 0 W/m 2,3 km/h (1 Bft) 100,00 %
25.07.2018 02:18 23,7 C 22,2 C 21,7 C 76 % 1011,5 hPa 0,0 l/m 0 min 0 min 0 W/m 2,3 km/h (1 Bft) 100,00 %
25.07.2018 02:20 23,7 C 22,2 C 21,7 C 76 % 1011,5 hPa 0,0 l/m 0 min 0 min 0 W/m 0,0 km/h (0 Bft) 100,00 %
25.07.2018 02:22 23,7 C 22,2 C 21,7 C 76 % 1011,5 hPa 0,0 l/m 0 min 0 min 0 W/m 6,8 km/h (2 Bft) 100,00 %
25.07.2018 02:24 23,6 C 22,2 C 21,7 C 76 % 1011,5 hPa 0,0 l/m 0 min 0 min 0 W/m 6,8 km/h (2 Bft) 97,87 %
25.07.2018 02:26 23,6 C 21,7 C 21,7 C 76 % 1011,5 hPa 0,0 l/m 0 min 0 min 0 W/m 4,5 km/h (1 Bft) 95,74 %
25.07.2018 02:28 23,6 C 21,7 C 21,7 C 76 % 1011,5 hPa 0,0 l/m 0 min 0 min 0 W/m 6,8 km/h (2 Bft) 98,00 %
25.07.2018 02:30 23,6 C 21,7 C 21,7 C 76 % 1011,5 hPa 0,0 l/m 0 min 0 min 0 W/m 4,5 km/h (1 Bft) 100,00 %
25.07.2018 02:32 23,5 C 21,7 C 21,7 C 76 % 1011,5 hPa 0,0 l/m 0 min 0 min 0 W/m 2,3 km/h (1 Bft) 95,74 %
25.07.2018 02:34 23,5 C 21,7 C 21,7 C 76 % 1011,5 hPa 0,0 l/m 0 min 0 min 0 W/m 4,5 km/h (1 Bft) 97,87 %
25.07.2018 02:36 23,4 C 21,7 C 21,7 C 76 % 1011,5 hPa 0,0 l/m 0 min 0 min 0 W/m 6,8 km/h (2 Bft) 94,44 %
25.07.2018 02:38 23,4 C 21,7 C 21,7 C 77 % 1011,5 hPa 0,0 l/m 0 min 0 min 0 W/m 6,8 km/h (2 Bft) 98,04 %
25.07.2018 02:40 23,3 C 21,7 C 21,7 C 77 % 1011,5 hPa 0,0 l/m 0 min 0 min 0 W/m 4,5 km/h (1 Bft) 97,87 %
25.07.2018 02:42 23,3 C 21,7 C 21,7 C 77 % 1011,5 hPa 0,0 l/m 0 min 0 min 0 W/m 4,5 km/h (1 Bft) 97,14 %
25.07.2018 02:44 23,3 C 21,7 C 21,7 C 77 % 1011,5 hPa 0,0 l/m 0 min 0 min 0 W/m 4,5 km/h (1 Bft) 97,87 %
25.07.2018 02:46 23,2 C 21,7 C 21,7 C 77 % 1011,5 hPa 0,0 l/m 0 min 0 min 0 W/m 2,3 km/h (1 Bft) 97,83 %
25.07.2018 02:48 23,2 C 21,7 C 21,7 C 77 % 1011,5 hPa 0,0 l/m 0 min 0 min 0 W/m 2,3 km/h (1 Bft) 97,87 %
25.07.2018 02:50 23,2 C 21,7 C 21,7 C 77 % 1011,5 hPa 0,0 l/m 0 min 0 min 0 W/m 4,5 km/h (1 Bft) 100,00 %
25.07.2018 02:52 23,1 C 21,7 C 21,7 C 77 % 1011,5 hPa 0,0 l/m 0 min 0 min 0 W/m 4,5 km/h (1 Bft) 97,87 %
25.07.2018 02:54 23,1 C 21,7 C 21,7 C 77 % 1011,5 hPa 0,0 l/m 0 min 0 min 0 W/m 6,8 km/h (2 Bft) 95,74 %
25.07.2018 02:56 23,1 C 21,7 C 21,7 C 77 % 1011,4 hPa 0,0 l/m 0 min 0 min 0 W/m 4,5 km/h (1 Bft) 97,87 %
25.07.2018 02:58 23,0 C 21,7 C 21,7 C 77 % 1011,5 hPa 0,0 l/m 0 min 0 min 0 W/m 2,3 km/h (1 Bft) 97,83 %
25.07.2018 03:00 23,0 C 21,7 C 21,7 C 77 % 1011,4 hPa 0,0 l/m 0 min 0 min 0 W/m 15,8 km/h (3 Bft) 95,74 %
25.07.2018 03:02 22,9 C 21,7 C 21,7 C 77 % 1011,5 hPa 0,0 l/m 0 min 0 min 0 W/m 2,3 km/h (1 Bft) 93,62 %
25.07.2018 03:04 22,9 C 21,7 C 21,7 C 77 % 1011,5 hPa 0,0 l/m 0 min 0 min 0 W/m 6,8 km/h (2 Bft) 93,62 %
25.07.2018 03:06 22,9 C 21,7 C 21,7 C 78 % 1011,5 hPa 0,0 l/m 0 min 0 min 0 W/m 4,5 km/h (1 Bft) 96,30 %
25.07.2018 03:08 22,9 C 21,7 C 21,7 C 78 % 1011,4 hPa 0,0 l/m 0 min 0 min 0 W/m 2,3 km/h (1 Bft) 95,74 %
25.07.2018 03:10 22,9 C 21,7 C 21,7 C 78 % 1011,4 hPa 0,0 l/m 0 min 0 min 0 W/m 6,8 km/h (2 Bft) 94,00 %
25.07.2018 03:12 22,8 C 21,7 C 21,7 C 78 % 1011,4 hPa 0,0 l/m 0 min 0 min 0 W/m 4,5 km/h (1 Bft) 95,74 %
25.07.2018 03:14 22,8 C 21,7 C 21,7 C 78 % 1011,4 hPa 0,0 l/m 0 min 0 min 0 W/m 0,0 km/h (0 Bft) 93,62 %
25.07.2018 03:16 22,8 C 21,7 C 21,1 C 78 % 1011,4 hPa 0,0 l/m 0 min 0 min 0 W/m 2,3 km/h (1 Bft) 97,92 %
25.07.2018 03:18 22,8 C 21,7 C 21,1 C 78 % 1011,4 hPa 0,0 l/m 0 min 0 min 0 W/m 11,3 km/h (2 Bft) 95,65 %
25.07.2018 03:20 22,8 C 21,7 C 21,7 C 78 % 1011,4 hPa 0,0 l/m 0 min 0 min 0 W/m 6,8 km/h (2 Bft) 94,44 %
25.07.2018 03:22 22,8 C 21,7 C 21,7 C 78 % 1011,4 hPa 0,0 l/m 0 min 0 min 0 W/m 4,5 km/h (1 Bft) 98,15 %
25.07.2018 03:24 22,7 C 21,7 C 21,7 C 78 % 1011,4 hPa 0,0 l/m 0 min 0 min 0 W/m 6,8 km/h (2 Bft) 97,87 %
25.07.2018 03:26 22,7 C 21,7 C 21,7 C 78 % 1011,4 hPa 0,0 l/m 0 min 0 min 0 W/m 4,5 km/h (1 Bft) 97,96 %
25.07.2018 03:28 22,7 C 21,7 C 21,7 C 78 % 1011,4 hPa 0,0 l/m 0 min 0 min 0 W/m 4,5 km/h (1 Bft) 97,96 %
25.07.2018 03:30 22,7 C 21,7 C 21,7 C 78 % 1011,4 hPa 0,0 l/m 0 min 0 min 0 W/m 6,8 km/h (2 Bft) 94,29 %
25.07.2018 03:32 22,7 C 21,7 C 21,1 C 78 % 1011,4 hPa 0,0 l/m 0 min 0 min 0 W/m 2,3 km/h (1 Bft) 96,30 %
25.07.2018 03:34 22,7 C 21,7 C 21,1 C 78 % 1011,4 hPa 0,0 l/m 0 min 0 min 0 W/m 6,8 km/h (2 Bft) 97,87 %
25.07.2018 03:36 22,7 C 21,7 C 21,1 C 78 % 1011,5 hPa 0,0 l/m 0 min 0 min 0 W/m 2,3 km/h (1 Bft) 97,92 %
25.07.2018 03:38 22,7 C 21,1 C 21,1 C 78 % 1011,4 hPa 0,0 l/m 0 min 0 min 0 W/m 0,0 km/h (0 Bft) 97,87 %
25.07.2018 03:40 22,6 C 21,1 C 21,1 C 78 % 1011,5 hPa 0,0 l/m 0 min 0 min 0 W/m 4,5 km/h (1 Bft) 95,65 %
25.07.2018 03:42 22,6 C 21,1 C 21,1 C 78 % 1011,5 hPa 0,0 l/m 0 min 0 min 0 W/m 4,5 km/h (1 Bft) 96,00 %
25.07.2018 03:44 22,6 C 21,1 C 21,1 C 78 % 1011,4 hPa 0,0 l/m 0 min 0 min 0 W/m 0,0 km/h (0 Bft) 95,74 %
25.07.2018 03:46 22,6 C 21,1 C 20,6 C 78 % 1011,5 hPa 0,0 l/m 0 min 0 min 0 W/m 2,3 km/h (1 Bft) 97,87 %
25.07.2018 03:48 22,6 C 21,1 C 20,6 C 78 % 1011,5 hPa 0,0 l/m 0 min 0 min 0 W/m 0,0 km/h (0 Bft) 95,74 %
25.07.2018 03:50 22,6 C 21,1 C 20,6 C 78 % 1011,4 hPa 0,0 l/m 0 min 0 min 0 W/m 0,0 km/h (0 Bft) 100,00 %
25.07.2018 03:52 22,6 C 20,6 C 20,6 C 78 % 1011,5 hPa 0,0 l/m 0 min 0 min 0 W/m 2,3 km/h (1 Bft) 100,00 %
25.07.2018 03:54 22,5 C 20,6 C 20,6 C 78 % 1011,5 hPa 0,0 l/m 0 min 0 min 0 W/m 0,0 km/h (0 Bft) 100,00 %
25.07.2018 03:56 22,5 C 20,6 C 20,6 C 78 % 1011,5 hPa 0,0 l/m 0 min 0 min 0 W/m 0,0 km/h (0 Bft) 95,74 %
25.07.2018 03:58 22,4 C 20,6 C 20,6 C 78 % 1011,5 hPa 0,0 l/m 0 min 0 min 0 W/m 0,0 km/h (0 Bft) 97,87 %
25.07.2018 04:00 22,4 C 20,6 C 20,6 C 78 % 1011,5 hPa 0,0 l/m 0 min 0 min 0 W/m 0,0 km/h (0 Bft) 100,00 %
25.07.2018 04:02 22,3 C 20,6 C 20,6 C 79 % 1011,5 hPa 0,0 l/m 0 min 0 min 0 W/m 2,3 km/h (1 Bft) 90,91 %
25.07.2018 04:04 22,3 C 20,6 C 20,6 C 79 % 1011,5 hPa 0,0 l/m 0 min 0 min 0 W/m 4,5 km/h (1 Bft) 95,74 %
25.07.2018 04:06 22,3 C 20,6 C 20,6 C 79 % 1011,5 hPa 0,0 l/m 0 min 0 min 0 W/m 2,3 km/h (1 Bft) 97,87 %
25.07.2018 04:08 22,2 C 20,6 C 20,6 C 79 % 1011,5 hPa 0,0 l/m 0 min 0 min 0 W/m 4,5 km/h (1 Bft) 97,87 %
25.07.2018 04:10 22,2 C 20,6 C 20,6 C 79 % 1011,6 hPa 0,0 l/m 0 min 0 min 0 W/m 0,0 km/h (0 Bft) 93,62 %
25.07.2018 04:12 22,2 C 20,6 C 20,6 C 79 % 1011,5 hPa 0,0 l/m 0 min 0 min 0 W/m 0,0 km/h (0 Bft) 95,74 %
25.07.2018 04:14 22,2 C 20,0 C 20,0 C 79 % 1011,6 hPa 0,0 l/m 0 min 0 min 0 W/m 2,3 km/h (1 Bft) 97,96 %
25.07.2018 04:16 22,1 C 20,0 C 20,0 C 79 % 1011,6 hPa 0,0 l/m 0 min 0 min 0 W/m 4,5 km/h (1 Bft) 97,87 %
25.07.2018 04:18 22,1 C 20,0 C 20,0 C 79 % 1011,5 hPa 0,0 l/m 0 min 0 min 0 W/m 0,0 km/h (0 Bft) 97,87 %
25.07.2018 04:20 22,1 C 20,0 C 20,0 C 79 % 1011,5 hPa 0,0 l/m 0 min 0 min 0 W/m 0,0 km/h (0 Bft) 97,87 %
25.07.2018 04:22 22,0 C 20,0 C 20,0 C 79 % 1011,5 hPa 0,0 l/m 0 min 0 min 0 W/m 0,0 km/h (0 Bft) 97,87 %
25.07.2018 04:24 22,0 C 20,0 C 20,0 C 80 % 1011,5 hPa 0,0 l/m 0 min 0 min 0 W/m 4,5 km/h (1 Bft) 97,87 %
25.07.2018 04:26 21,9 C 20,0 C 20,0 C 80 % 1011,5 hPa 0,0 l/m 0 min 0 min 0 W/m 0,0 km/h (0 Bft) 97,14 %
25.07.2018 04:28 21,9 C 20,0 C 20,0 C 80 % 1011,5 hPa 0,0 l/m 0 min 0 min 0 W/m 0,0 km/h (0 Bft) 98,18 %
25.07.2018 04:30 21,8 C 20,0 C 20,0 C 80 % 1011,6 hPa 0,0 l/m 0 min 0 min 0 W/m 0,0 km/h (0 Bft) 97,87 %
25.07.2018 04:32 21,8 C 20,0 C 20,0 C 80 % 1011,5 hPa 0,0 l/m 0 min 0 min 0 W/m 0,0 km/h (0 Bft) 96,00 %
25.07.2018 04:34 21,8 C 20,0 C 20,0 C 80 % 1011,5 hPa 0,0 l/m 0 min 0 min 0 W/m 0,0 km/h (0 Bft) 97,87 %
25.07.2018 04:36 21,7 C 20,0 C 20,0 C 80 % 1011,5 hPa 0,0 l/m 0 min 0 min 0 W/m 4,5 km/h (1 Bft) 97,87 %
25.07.2018 04:38 21,7 C 20,0 C 20,0 C 80 % 1011,5 hPa 0,0 l/m 0 min 0 min 0 W/m 2,3 km/h (1 Bft) 97,87 %
25.07.2018 04:40 21,7 C 19,4 C 20,0 C 80 % 1011,5 hPa 0,0 l/m 0 min 0 min 0 W/m 0,0 km/h (0 Bft) 97,83 %
25.07.2018 04:42 21,6 C 20,0 C 20,0 C 81 % 1011,5 hPa 0,0 l/m 0 min 0 min 0 W/m 0,0 km/h (0 Bft) 97,22 %
25.07.2018 04:44 21,6 C 20,0 C 20,0 C 81 % 1011,5 hPa 0,0 l/m 0 min 0 min 0 W/m 0,0 km/h (0 Bft) 97,83 %
25.07.2018 04:46 21,6 C 20,0 C 20,0 C 81 % 1011,5 hPa 0,0 l/m 0 min 0 min 0 W/m 0,0 km/h (0 Bft) 95,74 %
25.07.2018 04:48 21,5 C 20,0 C 20,0 C 81 % 1011,5 hPa 0,0 l/m 0 min 0 min 0 W/m 2,3 km/h (1 Bft) 97,87 %
25.07.2018 04:50 21,4 C 20,0 C 20,0 C 81 % 1011,6 hPa 0,0 l/m 0 min 0 min 0 W/m 0,0 km/h (0 Bft) 100,00 %
25.07.2018 04:52 21,4 C 20,0 C 20,0 C 81 % 1011,5 hPa 0,0 l/m 0 min 0 min 0 W/m 0,0 km/h (0 Bft) 100,00 %
25.07.2018 04:54 21,4 C 20,0 C 20,0 C 81 % 1011,5 hPa 0,0 l/m 0 min 0 min 0 W/m 2,3 km/h (1 Bft) 100,00 %
25.07.2018 04:56 21,4 C 20,0 C 20,0 C 81 % 1011,5 hPa 0,0 l/m 0 min 0 min 0 W/m 0,0 km/h (0 Bft) 97,83 %
25.07.2018 04:58 21,3 C 20,0 C 20,0 C 81 % 1011,6 hPa 0,0 l/m 0 min 0 min 0 W/m 0,0 km/h (0 Bft) 100,00 %
25.07.2018 05:00 21,3 C 20,0 C 20,0 C 81 % 1011,6 hPa 0,0 l/m 0 min 0 min 0 W/m 2,3 km/h (1 Bft) 100,00 %
25.07.2018 05:02 21,3 C 20,0 C 20,0 C 81 % 1011,6 hPa 0,0 l/m 0 min 0 min 0 W/m 0,0 km/h (0 Bft) 98,00 %
25.07.2018 05:04 21,3 C 20,0 C 20,0 C 81 % 1011,6 hPa 0,0 l/m 0 min 0 min 0 W/m 0,0 km/h (0 Bft) 100,00 %
25.07.2018 05:06 21,2 C 20,0 C 20,0 C 81 % 1011,6 hPa 0,0 l/m 0 min 0 min 0 W/m 0,0 km/h (0 Bft) 100,00 %
25.07.2018 05:08 21,2 C 20,0 C 20,0 C 81 % 1011,6 hPa 0,0 l/m 0 min 0 min 0 W/m 0,0 km/h (0 Bft) 100,00 %
25.07.2018 05:10 21,2 C 20,0 C 20,0 C 81 % 1011,7 hPa 0,0 l/m 0 min 0 min 0 W/m 2,3 km/h (1 Bft) 97,87 %
25.07.2018 05:12 21,2 C 20,0 C 20,0 C 81 % 1011,7 hPa 0,0 l/m 0 min 0 min 0 W/m 0,0 km/h (0 Bft) 100,00 %
25.07.2018 05:14 21,1 C 20,0 C 20,0 C 81 % 1011,7 hPa 0,0 l/m 0 min 0 min 0 W/m 2,3 km/h (1 Bft) 100,00 %
25.07.2018 05:16 21,1 C 20,0 C 20,0 C 81 % 1011,7 hPa 0,0 l/m 0 min 0 min 0 W/m 4,5 km/h (1 Bft) 100,00 %
25.07.2018 05:18 21,1 C 20,0 C 20,0 C 81 % 1011,6 hPa 0,0 l/m 0 min 0 min 0 W/m 4,5 km/h (1 Bft) 100,00 %
25.07.2018 05:20 21,1 C 20,0 C 20,0 C 81 % 1011,7 hPa 0,0 l/m 0 min 0 min 0 W/m 2,3 km/h (1 Bft) 100,00 %
25.07.2018 05:22 21,1 C 20,0 C 20,0 C 81 % 1011,8 hPa 0,0 l/m 0 min 0 min 0 W/m 0,0 km/h (0 Bft) 100,00 %
25.07.2018 05:24 21,0 C 20,0 C 20,0 C 81 % 1011,7 hPa 0,0 l/m 0 min 0 min 0 W/m 2,3 km/h (1 Bft) 100,00 %
25.07.2018 05:26 21,0 C 20,0 C 20,0 C 82 % 1011,7 hPa 0,0 l/m 0 min 0 min 0 W/m 0,0 km/h (0 Bft) 100,00 %
25.07.2018 05:28 21,0 C 20,0 C 20,0 C 82 % 1011,7 hPa 0,0 l/m 0 min 0 min 0 W/m 0,0 km/h (0 Bft) 100,00 %
25.07.2018 05:30 21,0 C 20,0 C 20,0 C 82 % 1011,7 hPa 0,0 l/m 0 min 0 min 0 W/m 0,0 km/h (0 Bft) 100,00 %
25.07.2018 05:32 20,9 C 20,0 C 20,0 C 81 % 1011,6 hPa 0,0 l/m 0 min 0 min 0 W/m 0,0 km/h (0 Bft) 96,36 %
25.07.2018 05:34 20,9 C 20,0 C 20,0 C 82 % 1011,7 hPa 0,0 l/m 0 min 0 min 0 W/m 2,3 km/h (1 Bft) 100,00 %
25.07.2018 05:35 20,9 C 20,0 C 20,0 C 82 % 1011,7 hPa 0,0 l/m 0 min 0 min 0 W/m 2,3 km/h (1 Bft) 100,00 %
25.07.2018 05:40 20,9 C 20,0 C 20,0 C 82 % 1011,8 hPa 0,0 l/m 0 min 0 min 0 W/m 0,0 km/h (0 Bft) 100,00 %
25.07.2018 05:42 20,9 C 20,0 C 20,0 C 82 % 1011,8 hPa 0,0 l/m 0 min 0 min 0 W/m 2,3 km/h (1 Bft) 98,15 %
25.07.2018 05:44 20,8 C 20,0 C 20,0 C 82 % 1011,8 hPa 0,0 l/m 0 min 0 min 0 W/m 2,3 km/h (1 Bft) 100,00 %
25.07.2018 05:46 20,8 C 20,0 C 19,4 C 82 % 1011,8 hPa 0,0 l/m 0 min 0 min 0 W/m 0,0 km/h (0 Bft) 97,83 %
25.07.2018 05:48 20,8 C 20,0 C 20,0 C 82 % 1011,9 hPa 0,0 l/m 0 min 0 min 5 W/m 6,8 km/h (2 Bft) 97,30 %
25.07.2018 05:50 20,8 C 20,0 C 19,4 C 82 % 1011,9 hPa 0,0 l/m 0 min 0 min 5 W/m 0,0 km/h (0 Bft) 97,87 %
25.07.2018 05:52 20,8 C 20,0 C 19,4 C 82 % 1012,0 hPa 0,0 l/m 0 min 0 min 5 W/m 0,0 km/h (0 Bft) 100,00 %
25.07.2018 05:54 20,8 C 20,0 C 19,4 C 81 % 1011,9 hPa 0,0 l/m 0 min 0 min 6 W/m 0,0 km/h (0 Bft) 95,65 %
25.07.2018 05:56 20,8 C 20,0 C 19,4 C 81 % 1012,0 hPa 0,0 l/m 0 min 0 min 7 W/m 2,3 km/h (1 Bft) 97,87 %
25.07.2018 05:58 20,8 C 20,0 C 19,4 C 81 % 1012,1 hPa 0,0 l/m 0 min 0 min 7 W/m 0,0 km/h (0 Bft) 95,74 %
25.07.2018 06:00 20,8 C 20,0 C 19,4 C 81 % 1012,1 hPa 0,0 l/m 0 min 0 min 9 W/m 0,0 km/h (0 Bft) 96,30 %
25.07.2018 06:02 20,8 C 19,4 C 19,4 C 81 % 1012,0 hPa 0,0 l/m 0 min 0 min 9 W/m 0,0 km/h (0 Bft) 93,62 %
25.07.2018 06:04 20,7 C 19,4 C 19,4 C 81 % 1012,1 hPa 0,0 l/m 0 min 0 min 11 W/m 0,0 km/h (0 Bft) 96,00 %
25.07.2018 06:08 20,7 C 19,4 C 19,4 C 81 % 1012,1 hPa 0,0 l/m 0 min 0 min 12 W/m 0,0 km/h (0 Bft) 95,35 %
25.07.2018 06:10 20,7 C 19,4 C 18,9 C 81 % 1012,1 hPa 0,0 l/m 0 min 0 min 13 W/m 0,0 km/h (0 Bft) 94,34 %
25.07.2018 06:12 20,7 C 19,4 C 18,9 C 81 % 1012,0 hPa 0,0 l/m 0 min 0 min 14 W/m 0,0 km/h (0 Bft) 94,74 %
25.07.2018 06:14 20,7 C 19,4 C 18,9 C 82 % 1012,1 hPa 0,0 l/m 0 min 0 min 15 W/m 2,3 km/h (1 Bft) 95,74 %
25.07.2018 06:16 20,7 C 19,4 C 18,9 C 82 % 1012,1 hPa 0,0 l/m 0 min 0 min 16 W/m 0,0 km/h (0 Bft) 95,74 %
25.07.2018 06:18 20,7 C 19,4 C 18,9 C 82 % 1012,2 hPa 0,0 l/m 0 min 0 min 18 W/m 4,5 km/h (1 Bft) 97,92 %
25.07.2018 06:20 20,7 C 19,4 C 18,9 C 82 % 1012,2 hPa 0,0 l/m 0 min 0 min 18 W/m 0,0 km/h (0 Bft) 95,92 %
25.07.2018 06:22 20,7 C 19,4 C 18,9 C 82 % 1012,2 hPa 0,0 l/m 0 min 0 min 19 W/m 0,0 km/h (0 Bft) 95,74 %
25.07.2018 06:24 20,6 C 18,9 C 18,9 C 83 % 1012,2 hPa 0,0 l/m 0 min 0 min 20 W/m 0,0 km/h (0 Bft) 95,74 %
25.07.2018 06:26 20,6 C 19,4 C 18,9 C 82 % 1012,2 hPa 0,0 l/m 0 min 0 min 21 W/m 0,0 km/h (0 Bft) 93,62 %
25.07.2018 06:28 20,6 C 18,9 C 18,9 C 83 % 1012,1 hPa 0,0 l/m 0 min 0 min 22 W/m 0,0 km/h (0 Bft) 95,65 %
25.07.2018 06:30 20,6 C 18,9 C 18,9 C 83 % 1012,1 hPa 0,0 l/m 0 min 0 min 23 W/m 0,0 km/h (0 Bft) 95,74 %
25.07.2018 06:32 20,6 C 19,4 C 18,9 C 83 % 1012,1 hPa 0,0 l/m 0 min 0 min 23 W/m 0,0 km/h (0 Bft) 92,45 %
25.07.2018 06:34 20,5 C 18,9 C 18,9 C 83 % 1012,1 hPa 0,0 l/m 0 min 0 min 25 W/m 0,0 km/h (0 Bft) 95,74 %
25.07.2018 06:36 20,5 C 18,9 C 18,9 C 83 % 1012,1 hPa 0,0 l/m 0 min 0 min 26 W/m 0,0 km/h (0 Bft) 97,37 %
25.07.2018 06:38 20,4 C 18,9 C 18,9 C 83 % 1012,2 hPa 0,0 l/m 0 min 0 min 26 W/m 0,0 km/h (0 Bft) 94,00 %
25.07.2018 06:40 20,4 C 19,4 C 18,9 C 83 % 1012,1 hPa 0,0 l/m 0 min 0 min 27 W/m 0,0 km/h (0 Bft) 95,65 %
25.07.2018 06:42 20,4 C 19,4 C 18,9 C 83 % 1012,2 hPa 0,0 l/m 0 min 0 min 28 W/m 0,0 km/h (0 Bft) 93,62 %
25.07.2018 06:44 20,4 C 19,4 C 18,9 C 83 % 1012,1 hPa 0,0 l/m 0 min 0 min 28 W/m 0,0 km/h (0 Bft) 95,74 %
25.07.2018 06:46 20,4 C 19,4 C 18,9 C 83 % 1012,1 hPa 0,0 l/m 0 min 0 min 30 W/m 0,0 km/h (0 Bft) 95,74 %
25.07.2018 06:48 20,4 C 19,4 C 18,9 C 83 % 1012,1 hPa 0,0 l/m 0 min 0 min 30 W/m 0,0 km/h (0 Bft) 97,87 %
25.07.2018 06:50 20,3 C 19,4 C 18,9 C 84 % 1012,3 hPa 0,0 l/m 0 min 0 min 32 W/m 0,0 km/h (0 Bft) 96,23 %
25.07.2018 06:52 20,3 C 19,4 C 18,9 C 84 % 1012,2 hPa 0,0 l/m 0 min 0 min 32 W/m 0,0 km/h (0 Bft) 95,74 %
25.07.2018 06:54 20,3 C 19,4 C 18,9 C 84 % 1012,2 hPa 0,0 l/m 0 min 0 min 33 W/m 2,3 km/h (1 Bft) 95,74 %
25.07.2018 06:56 20,3 C 19,4 C 18,9 C 84 % 1012,3 hPa 0,0 l/m 0 min 0 min 34 W/m 4,5 km/h (1 Bft) 94,74 %
25.07.2018 06:58 20,3 C 19,4 C 18,9 C 84 % 1012,3 hPa 0,0 l/m 0 min 0 min 35 W/m 0,0 km/h (0 Bft) 97,96 %
25.07.2018 07:00 20,2 C 19,4 C 18,9 C 84 % 1012,3 hPa 0,0 l/m 0 min 0 min 35 W/m 0,0 km/h (0 Bft) 95,74 %
25.07.2018 07:02 20,2 C 19,4 C 18,9 C 84 % 1012,3 hPa 0,0 l/m 0 min 0 min 37 W/m 0,0 km/h (0 Bft) 95,65 %
25.07.2018 07:04 20,2 C 19,4 C 18,9 C 84 % 1012,3 hPa 0,0 l/m 0 min 0 min 38 W/m 0,0 km/h (0 Bft) 96,30 %
25.07.2018 07:06 20,2 C 19,4 C 19,4 C 85 % 1012,2 hPa 0,0 l/m 0 min 0 min 39 W/m 0,0 km/h (0 Bft) 97,37 %
25.07.2018 07:08 20,2 C 19,4 C 19,4 C 85 % 1012,2 hPa 0,0 l/m 0 min 0 min 40 W/m 0,0 km/h (0 Bft) 97,96 %
25.07.2018 07:10 20,2 C 19,4 C 19,4 C 85 % 1012,3 hPa 0,0 l/m 0 min 0 min 40 W/m 0,0 km/h (0 Bft) 97,87 %
25.07.2018 07:12 20,2 C 19,4 C 19,4 C 85 % 1012,3 hPa 0,0 l/m 0 min 0 min 41 W/m 0,0 km/h (0 Bft) 98,11 %
25.07.2018 07:14 20,2 C 19,4 C 19,4 C 85 % 1012,3 hPa 0,0 l/m 0 min 0 min 42 W/m 0,0 km/h (0 Bft) 94,74 %
25.07.2018 07:16 20,1 C 19,4 C 19,4 C 85 % 1012,3 hPa 0,0 l/m 0 min 0 min 44 W/m 6,8 km/h (2 Bft) 98,00 %
25.07.2018 07:18 20,1 C 19,4 C 19,4 C 85 % 1012,3 hPa 0,0 l/m 0 min 0 min 44 W/m 4,5 km/h (1 Bft) 95,74 %
25.07.2018 07:20 20,1 C 19,4 C 19,4 C 85 % 1012,3 hPa 0,0 l/m 0 min 0 min 46 W/m 2,3 km/h (1 Bft) 97,87 %
25.07.2018 07:22 20,1 C 19,4 C 19,4 C 85 % 1012,4 hPa 0,0 l/m 0 min 0 min 47 W/m 2,3 km/h (1 Bft) 97,87 %
25.07.2018 07:24 20,1 C 19,4 C 19,4 C 85 % 1012,4 hPa 0,0 l/m 0 min 0 min 47 W/m 4,5 km/h (1 Bft) 95,74 %
25.07.2018 07:26 20,1 C 20,0 C 19,4 C 85 % 1012,5 hPa 0,0 l/m 0 min 0 min 48 W/m 4,5 km/h (1 Bft) 97,83 %
25.07.2018 07:28 20,1 C 20,0 C 19,4 C 85 % 1012,6 hPa 0,0 l/m 0 min 0 min 49 W/m 4,5 km/h (1 Bft) 97,87 %
25.07.2018 07:30 20,1 C 20,0 C 19,4 C 85 % 1012,6 hPa 0,0 l/m 0 min 0 min 51 W/m 0,0 km/h (0 Bft) 97,87 %
25.07.2018 07:32 20,1 C 19,4 C 18,9 C 86 % 1012,5 hPa 0,0 l/m 0 min 0 min 53 W/m 0,0 km/h (0 Bft) 97,73 %
25.07.2018 07:34 20,1 C 18,9 C 18,3 C 86 % 1012,5 hPa 0,0 l/m 0 min 0 min 53 W/m 2,3 km/h (1 Bft) 97,96 %
25.07.2018 07:36 20,1 C 18,9 C 18,3 C 86 % 1012,6 hPa 0,0 l/m 0 min 0 min 54 W/m 2,3 km/h (1 Bft) 100,00 %
25.07.2018 07:38 20,1 C 18,9 C 17,8 C 86 % 1012,7 hPa 0,0 l/m 0 min 0 min 54 W/m 0,0 km/h (0 Bft) 100,00 %
25.07.2018 07:40 20,1 C 18,9 C 17,8 C 86 % 1012,7 hPa 0,0 l/m 0 min 0 min 56 W/m 0,0 km/h (0 Bft) 100,00 %
25.07.2018 07:42 20,2 C 18,3 C 17,8 C 87 % 1012,7 hPa 0,0 l/m 0 min 0 min 56 W/m 2,3 km/h (1 Bft) 97,87 %
25.07.2018 07:44 20,2 C 18,3 C 17,8 C 87 % 1012,7 hPa 0,0 l/m 0 min 0 min 58 W/m 4,5 km/h (1 Bft) 100,00 %
25.07.2018 07:46 20,2 C 18,3 C 17,8 C 87 % 1012,7 hPa 0,0 l/m 0 min 0 min 58 W/m 4,5 km/h (1 Bft) 100,00 %
25.07.2018 07:48 20,3 C 18,3 C 17,8 C 87 % 1012,7 hPa 0,0 l/m 0 min 0 min 60 W/m 4,5 km/h (1 Bft) 100,00 %
25.07.2018 07:50 20,3 C 18,3 C 17,8 C 88 % 1012,8 hPa 0,0 l/m 0 min 0 min 60 W/m 2,3 km/h (1 Bft) 100,00 %
25.07.2018 07:52 20,3 C 18,3 C 17,8 C 88 % 1012,7 hPa 0,0 l/m 0 min 0 min 62 W/m 2,3 km/h (1 Bft) 100,00 %
25.07.2018 07:54 20,3 C 18,3 C 17,8 C 88 % 1012,8 hPa 0,0 l/m 0 min 0 min 62 W/m 2,3 km/h (1 Bft) 100,00 %
25.07.2018 07:56 20,3 C 18,3 C 17,8 C 88 % 1012,8 hPa 0,0 l/m 0 min 0 min 63 W/m 6,8 km/h (2 Bft) 100,00 %
25.07.2018 07:58 20,3 C 18,3 C 17,8 C 88 % 1012,8 hPa 0,0 l/m 0 min 0 min 63 W/m 6,8 km/h (2 Bft) 100,00 %
25.07.2018 08:00 20,3 C 18,3 C 17,8 C 88 % 1012,7 hPa 0,0 l/m 0 min 0 min 64 W/m 4,5 km/h (1 Bft) 100,00 %
25.07.2018 08:02 20,3 C 18,3 C 17,8 C 88 % 1012,7 hPa 0,0 l/m 0 min 0 min 65 W/m 4,5 km/h (1 Bft) 100,00 %
25.07.2018 08:04 20,3 C 18,3 C 17,8 C 88 % 1012,8 hPa 0,0 l/m 0 min 0 min 66 W/m 4,5 km/h (1 Bft) 100,00 %
25.07.2018 08:06 20,4 C 18,3 C 17,8 C 88 % 1012,8 hPa 0,0 l/m 0 min 0 min 68 W/m 2,3 km/h (1 Bft) 100,00 %
25.07.2018 08:08 20,4 C 18,9 C 17,8 C 88 % 1012,8 hPa 0,0 l/m 0 min 0 min 69 W/m 4,5 km/h (1 Bft) 100,00 %
25.07.2018 08:10 20,4 C 18,3 C 17,8 C 88 % 1012,8 hPa 0,0 l/m 0 min 0 min 70 W/m 9,0 km/h (2 Bft) 100,00 %
25.07.2018 08:12 20,4 C 18,3 C 17,8 C 88 % 1012,9 hPa 0,0 l/m 0 min 0 min 71 W/m 2,3 km/h (1 Bft) 100,00 %
25.07.2018 08:14 20,4 C 18,3 C 17,8 C 88 % 1012,9 hPa 0,0 l/m 0 min 0 min 72 W/m 9,0 km/h (2 Bft) 100,00 %
25.07.2018 08:16 20,4 C 18,3 C 17,8 C 88 % 1012,9 hPa 0,0 l/m 0 min 0 min 74 W/m 6,8 km/h (2 Bft) 100,00 %
25.07.2018 08:18 20,5 C 18,9 C 17,8 C 88 % 1012,9 hPa 0,0 l/m 0 min 0 min 75 W/m 4,5 km/h (1 Bft) 100,00 %
25.07.2018 08:20 20,5 C 18,9 C 17,8 C 88 % 1012,8 hPa 0,0 l/m 0 min 0 min 77 W/m 4,5 km/h (1 Bft) 98,28 %
25.07.2018 08:22 20,6 C 18,9 C 17,8 C 88 % 1012,8 hPa 0,0 l/m 0 min 0 min 79 W/m 0,0 km/h (0 Bft) 100,00 %
25.07.2018 08:24 20,6 C 18,9 C 17,8 C 88 % 1012,8 hPa 0,0 l/m 0 min 0 min 82 W/m 6,8 km/h (2 Bft) 100,00 %
25.07.2018 08:26 20,6 C 18,9 C 17,8 C 88 % 1012,7 hPa 0,0 l/m 0 min 0 min 83 W/m 6,8 km/h (2 Bft) 100,00 %
25.07.2018 08:28 20,6 C 18,9 C 17,8 C 88 % 1012,8 hPa 0,0 l/m 0 min 0 min 93 W/m 6,8 km/h (2 Bft) 100,00 %
25.07.2018 08:30 20,6 C 18,9 C 17,8 C 88 % 1012,8 hPa 0,0 l/m 0 min 0 min 183 W/m 6,8 km/h (2 Bft) 100,00 %
25.07.2018 08:32 20,7 C 18,9 C 17,8 C 88 % 1012,8 hPa 0,2 l/m 2 min 0 min 253 W/m 9,0 km/h (2 Bft) 100,00 %
25.07.2018 08:34 20,7 C 18,9 C 17,8 C 88 % 1012,8 hPa 0,0 l/m 2 min 0 min 261 W/m 6,8 km/h (2 Bft) 97,62 %
25.07.2018 08:36 20,7 C 18,9 C 17,8 C 88 % 1012,9 hPa 0,0 l/m 2 min 0 min 265 W/m 6,8 km/h (2 Bft) 98,04 %
25.07.2018 08:38 20,8 C 18,9 C 17,8 C 88 % 1012,9 hPa 0,0 l/m 2 min 0 min 270 W/m 4,5 km/h (1 Bft) 97,87 %
25.07.2018 08:40 20,8 C 18,9 C 18,3 C 88 % 1012,9 hPa 0,0 l/m 2 min 0 min 277 W/m 4,5 km/h (1 Bft) 97,87 %
25.07.2018 08:42 20,9 C 18,9 C 18,3 C 88 % 1012,9 hPa 0,0 l/m 2 min 0 min 281 W/m 6,8 km/h (2 Bft) 97,73 %
25.07.2018 08:44 20,9 C 19,4 C 18,3 C 88 % 1012,9 hPa 0,0 l/m 2 min 0 min 287 W/m 6,8 km/h (2 Bft) 95,92 %
25.07.2018 08:46 20,9 C 19,4 C 18,3 C 88 % 1012,9 hPa 0,0 l/m 2 min 0 min 294 W/m 2,3 km/h (1 Bft) 97,92 %
25.07.2018 08:48 21,0 C 18,9 C 18,3 C 88 % 1012,9 hPa 0,0 l/m 2 min 0 min 299 W/m 4,5 km/h (1 Bft) 97,83 %
25.07.2018 08:50 21,0 C 18,9 C 18,3 C 88 % 1012,9 hPa 0,0 l/m 2 min 0 min 306 W/m 4,5 km/h (1 Bft) 97,73 %
25.07.2018 08:52 21,1 C 19,4 C 18,3 C 88 % 1013,0 hPa 0,0 l/m 2 min 0 min 313 W/m 4,5 km/h (1 Bft) 95,74 %
25.07.2018 08:54 21,1 C 19,4 C 18,3 C 88 % 1013,0 hPa 0,0 l/m 2 min 0 min 318 W/m 4,5 km/h (1 Bft) 97,87 %
25.07.2018 08:56 21,2 C 19,4 C 18,3 C 88 % 1013,1 hPa 0,0 l/m 2 min 0 min 323 W/m 4,5 km/h (1 Bft) 97,83 %
25.07.2018 08:58 21,2 C 19,4 C 18,9 C 88 % 1013,1 hPa 0,0 l/m 2 min 0 min 327 W/m 4,5 km/h (1 Bft) 96,00 %
25.07.2018 09:00 21,2 C 20,0 C 18,9 C 88 % 1013,1 hPa 0,0 l/m 2 min 0 min 332 W/m 2,3 km/h (1 Bft) 97,87 %
25.07.2018 09:02 21,3 C 20,0 C 18,9 C 88 % 1013,1 hPa 0,0 l/m 2 min 0 min 339 W/m 9,0 km/h (2 Bft) 95,74 %
25.07.2018 09:04 21,3 C 20,0 C 18,9 C 88 % 1013,1 hPa 0,0 l/m 2 min 0 min 344 W/m 6,8 km/h (2 Bft) 93,18 %
25.07.2018 09:06 21,4 C 20,0 C 18,9 C 88 % 1013,1 hPa 0,0 l/m 2 min 0 min 349 W/m 4,5 km/h (1 Bft) 97,96 %
25.07.2018 09:08 21,5 C 20,0 C 18,9 C 88 % 1013,1 hPa 0,0 l/m 2 min 0 min 355 W/m 9,0 km/h (2 Bft) 97,92 %
25.07.2018 09:10 21,5 C 20,0 C 19,4 C 87 % 1013,1 hPa 0,0 l/m 2 min 0 min 360 W/m 4,5 km/h (1 Bft) 97,87 %
25.07.2018 09:12 21,6 C 20,6 C 19,4 C 87 % 1013,2 hPa 0,0 l/m 2 min 0 min 366 W/m 6,8 km/h (2 Bft) 93,02 %
25.07.2018 09:14 21,7 C 20,6 C 19,4 C 87 % 1013,2 hPa 0,0 l/m 2 min 0 min 370 W/m 6,8 km/h (2 Bft) 95,74 %
25.07.2018 09:16 21,7 C 21,1 C 20,0 C 86 % 1013,2 hPa 0,0 l/m 2 min 0 min 375 W/m 6,8 km/h (2 Bft) 96,00 %
25.07.2018 09:18 21,8 C 21,1 C 20,0 C 86 % 1013,2 hPa 0,0 l/m 2 min 0 min 380 W/m 4,5 km/h (1 Bft) 95,65 %
25.07.2018 09:20 21,9 C 21,1 C 20,0 C 85 % 1013,3 hPa 0,0 l/m 2 min 0 min 384 W/m 11,3 km/h (2 Bft) 97,92 %
25.07.2018 09:22 21,9 C 21,1 C 20,6 C 85 % 1013,2 hPa 0,0 l/m 2 min 0 min 390 W/m 4,5 km/h (1 Bft) 100,00 %
25.07.2018 09:24 22,0 C 21,1 C 20,6 C 85 % 1013,3 hPa 0,0 l/m 2 min 0 min 394 W/m 4,5 km/h (1 Bft) 100,00 %
25.07.2018 09:26 22,1 C 21,1 C 20,6 C 85 % 1013,3 hPa 0,0 l/m 2 min 0 min 400 W/m 4,5 km/h (1 Bft) 100,00 %
25.07.2018 09:28 22,2 C 21,1 C 21,1 C 85 % 1013,3 hPa 0,0 l/m 2 min 0 min 405 W/m 6,8 km/h (2 Bft) 95,74 %
25.07.2018 09:30 22,3 C 21,1 C 21,7 C 85 % 1013,3 hPa 0,0 l/m 2 min 0 min 411 W/m 6,8 km/h (2 Bft) 95,35 %
25.07.2018 09:32 22,4 C 21,1 C 22,2 C 84 % 1013,3 hPa 0,0 l/m 2 min 0 min 417 W/m 4,5 km/h (1 Bft) 98,00 %
25.07.2018 09:34 22,4 C 21,7 C 22,2 C 84 % 1013,2 hPa 0,0 l/m 2 min 0 min 420 W/m 0,0 km/h (0 Bft) 95,74 %
25.07.2018 09:36 22,6 C 21,7 C 22,2 C 84 % 1013,3 hPa 0,0 l/m 2 min 0 min 424 W/m 4,5 km/h (1 Bft) 95,74 %
25.07.2018 09:38 22,6 C 21,7 C 22,2 C 84 % 1013,2 hPa 0,0 l/m 2 min 0 min 428 W/m 4,5 km/h (1 Bft) 95,74 %
25.07.2018 09:40 22,7 C 21,7 C 22,2 C 83 % 1013,3 hPa 0,0 l/m 2 min 0 min 432 W/m 4,5 km/h (1 Bft) 95,24 %
25.07.2018 09:42 22,8 C 21,7 C 22,2 C 83 % 1013,3 hPa 0,0 l/m 2 min 0 min 435 W/m 4,5 km/h (1 Bft) 93,48 %
25.07.2018 09:44 22,8 C 22,2 C 22,2 C 83 % 1013,2 hPa 0,0 l/m 2 min 0 min 441 W/m 11,3 km/h (2 Bft) 95,74 %
25.07.2018 09:46 22,9 C 22,8 C 22,2 C 82 % 1013,1 hPa 0,0 l/m 2 min 0 min 446 W/m 4,5 km/h (1 Bft) 95,74 %
25.07.2018 09:48 22,9 C 22,2 C 22,8 C 82 % 1013,1 hPa 0,0 l/m 2 min 0 min 453 W/m 4,5 km/h (1 Bft) 95,83 %
25.07.2018 09:50 23,1 C 22,2 C 22,8 C 81 % 1013,1 hPa 0,0 l/m 2 min 0 min 458 W/m 6,8 km/h (2 Bft) 95,74 %
25.07.2018 09:52 23,2 C 22,2 C 22,8 C 80 % 1013,2 hPa 0,0 l/m 2 min 0 min 462 W/m 9,0 km/h (2 Bft) 91,49 %
25.07.2018 09:54 23,3 C 22,2 C 22,8 C 80 % 1013,2 hPa 0,0 l/m 2 min 0 min 466 W/m 6,8 km/h (2 Bft) 95,65 %
25.07.2018 09:56 23,3 C 22,2 C 22,8 C 80 % 1013,1 hPa 0,0 l/m 2 min 0 min 469 W/m 4,5 km/h (1 Bft) 96,00 %
25.07.2018 09:58 23,4 C 22,8 C 23,3 C 79 % 1013,2 hPa 0,0 l/m 2 min 0 min 475 W/m 6,8 km/h (2 Bft) 95,83 %
25.07.2018 10:00 23,6 C 23,3 C 23,3 C 79 % 1013,1 hPa 0,0 l/m 2 min 0 min 480 W/m 4,5 km/h (1 Bft) 95,74 %
25.07.2018 10:02 23,7 C 23,3 C 23,3 C 78 % 1013,2 hPa 0,0 l/m 2 min 0 min 484 W/m 2,3 km/h (1 Bft) 95,35 %
25.07.2018 10:04 23,8 C 24,4 C 23,3 C 79 % 1013,2 hPa 0,0 l/m 2 min 0 min 489 W/m 6,8 km/h (2 Bft) 95,74 %
25.07.2018 10:06 23,8 C 25,6 C 23,3 C 78 % 1013,1 hPa 0,0 l/m 2 min 0 min 495 W/m 6,8 km/h (2 Bft) 93,88 %
25.07.2018 10:08 23,9 C 26,1 C 23,3 C 77 % 1013,2 hPa 0,0 l/m 2 min 0 min 499 W/m 11,3 km/h (2 Bft) 93,88 %
25.07.2018 10:10 24,1 C 26,1 C 23,3 C 77 % 1013,2 hPa 0,0 l/m 2 min 0 min 504 W/m 6,8 km/h (2 Bft) 95,65 %
25.07.2018 10:12 24,2 C 26,1 C 23,3 C 76 % 1013,2 hPa 0,0 l/m 2 min 0 min 508 W/m 4,5 km/h (1 Bft) 95,74 %
25.07.2018 10:14 24,3 C 26,7 C 23,3 C 76 % 1013,3 hPa 0,0 l/m 2 min 0 min 511 W/m 11,3 km/h (2 Bft) 95,74 %
25.07.2018 10:16 24,3 C 26,7 C 23,3 C 76 % 1013,3 hPa 0,0 l/m 2 min 0 min 517 W/m 4,5 km/h (1 Bft) 95,74 %
25.07.2018 10:18 24,5 C 27,2 C 23,9 C 76 % 1013,3 hPa 0,0 l/m 2 min 0 min 521 W/m 6,8 km/h (2 Bft) 95,74 %
25.07.2018 10:20 24,6 C 27,2 C 23,9 C 76 % 1013,3 hPa 0,0 l/m 2 min 0 min 527 W/m 6,8 km/h (2 Bft) 94,44 %
25.07.2018 10:22 24,7 C 27,2 C 23,9 C 75 % 1013,3 hPa 0,0 l/m 2 min 0 min 529 W/m 11,3 km/h (2 Bft) 97,14 %
25.07.2018 10:24 24,8 C 27,2 C 23,9 C 75 % 1013,3 hPa 0,0 l/m 2 min 0 min 532 W/m 9,0 km/h (2 Bft) 95,83 %
25.07.2018 10:26 24,9 C 27,2 C 23,9 C 74 % 1013,3 hPa 0,0 l/m 2 min 0 min 537 W/m 6,8 km/h (2 Bft) 98,00 %
25.07.2018 10:28 25,1 C 27,2 C 23,9 C 75 % 1013,3 hPa 0,0 l/m 2 min 0 min 542 W/m 6,8 km/h (2 Bft) 97,87 %
25.07.2018 10:30 25,2 C 27,2 C 24,4 C 74 % 1013,3 hPa 0,0 l/m 2 min 0 min 546 W/m 6,8 km/h (2 Bft) 97,87 %
25.07.2018 10:32 25,3 C 27,8 C 24,4 C 73 % 1013,4 hPa 0,0 l/m 2 min 0 min 551 W/m 9,0 km/h (2 Bft) 97,67 %
25.07.2018 10:34 25,4 C 27,8 C 24,4 C 72 % 1013,4 hPa 0,0 l/m 2 min 0 min 556 W/m 4,5 km/h (1 Bft) 100,00 %
25.07.2018 10:36 25,5 C 28,9 C 24,4 C 72 % 1013,3 hPa 0,0 l/m 2 min 0 min 560 W/m 9,0 km/h (2 Bft) 96,00 %
25.07.2018 10:38 25,6 C 29,4 C 23,9 C 72 % 1013,2 hPa 0,0 l/m 2 min 0 min 565 W/m 9,0 km/h (2 Bft) 95,74 %
25.07.2018 10:40 25,6 C 30,6 C 24,4 C 72 % 1013,2 hPa 0,0 l/m 2 min 0 min 566 W/m 6,8 km/h (2 Bft) 100,00 %
25.07.2018 10:42 25,7 C 31,1 C 24,4 C 72 % 1013,2 hPa 0,0 l/m 2 min 0 min 567 W/m 11,3 km/h (2 Bft) 100,00 %
25.07.2018 10:44 25,8 C 32,8 C 24,4 C 71 % 1013,2 hPa 0,0 l/m 2 min 0 min 571 W/m 4,5 km/h (1 Bft) 100,00 %
25.07.2018 10:46 25,9 C 33,3 C 24,4 C 70 % 1013,2 hPa 0,0 l/m 2 min 0 min 579 W/m 9,0 km/h (2 Bft) 100,00 %
25.07.2018 10:48 26,1 C 32,8 C 24,4 C 70 % 1013,2 hPa 0,0 l/m 2 min 0 min 584 W/m 6,8 km/h (2 Bft) 97,87 %
25.07.2018 10:50 26,2 C 33,3 C 24,4 C 70 % 1013,2 hPa 0,0 l/m 2 min 0 min 586 W/m 9,0 km/h (2 Bft) 100,00 %
25.07.2018 10:52 26,3 C 33,3 C 24,4 C 70 % 1013,1 hPa 0,0 l/m 2 min 0 min 590 W/m 6,8 km/h (2 Bft) 100,00 %
25.07.2018 10:54 26,4 C 32,2 C 24,4 C 71 % 1013,1 hPa 0,0 l/m 2 min 0 min 593 W/m 6,8 km/h (2 Bft) 100,00 %
25.07.2018 10:56 26,6 C 32,8 C 24,4 C 70 % 1013,2 hPa 0,0 l/m 2 min 0 min 594 W/m 11,3 km/h (2 Bft) 97,83 %
25.07.2018 10:58 26,7 C 33,9 C 24,4 C 69 % 1013,1 hPa 0,0 l/m 2 min 0 min 599 W/m 9,0 km/h (2 Bft) 97,87 %
25.07.2018 11:00 26,8 C 34,4 C 24,4 C 68 % 1013,1 hPa 0,0 l/m 2 min 0 min 605 W/m 9,0 km/h (2 Bft) 100,00 %
25.07.2018 11:02 27,0 C 35,0 C 25,0 C 67 % 1013,1 hPa 0,0 l/m 2 min 0 min 606 W/m 2,3 km/h (1 Bft) 97,87 %
25.07.2018 11:04 27,2 C 36,1 C 24,4 C 68 % 1013,1 hPa 0,0 l/m 2 min 0 min 610 W/m 11,3 km/h (2 Bft) 100,00 %
25.07.2018 11:06 27,3 C 36,1 C 25,0 C 68 % 1013,2 hPa 0,0 l/m 2 min 0 min 618 W/m 13,5 km/h (3 Bft) 100,00 %
25.07.2018 11:08 27,4 C 36,1 C 25,0 C 66 % 1013,2 hPa 0,0 l/m 2 min 0 min 619 W/m 9,0 km/h (2 Bft) 100,00 %
25.07.2018 11:10 27,6 C 36,1 C 25,0 C 66 % 1013,3 hPa 0,0 l/m 2 min 0 min 623 W/m 6,8 km/h (2 Bft) 98,00 %
25.07.2018 11:12 27,8 C 36,1 C 25,0 C 67 % 1013,3 hPa 0,0 l/m 2 min 0 min 628 W/m 11,3 km/h (2 Bft) 95,83 %
25.07.2018 11:14 27,9 C 35,0 C 25,6 C 64 % 1013,2 hPa 0,0 l/m 2 min 0 min 630 W/m 9,0 km/h (2 Bft) 97,87 %
25.07.2018 11:16 28,1 C 36,1 C 25,6 C 64 % 1013,3 hPa 0,0 l/m 2 min 0 min 635 W/m 11,3 km/h (2 Bft) 95,74 %
25.07.2018 11:18 28,3 C 37,2 C 25,6 C 65 % 1013,2 hPa 0,0 l/m 2 min 0 min 638 W/m 6,8 km/h (2 Bft) 97,87 %
25.07.2018 11:20 28,4 C 36,7 C 25,6 C 63 % 1013,2 hPa 0,0 l/m 2 min 0 min 635 W/m 9,0 km/h (2 Bft) 96,30 %
25.07.2018 11:22 28,6 C 36,7 C 25,6 C 63 % 1013,2 hPa 0,0 l/m 2 min 0 min 636 W/m 6,8 km/h (2 Bft) 97,14 %
25.07.2018 11:24 28,7 C 37,2 C 25,6 C 63 % 1013,3 hPa 0,0 l/m 2 min 0 min 646 W/m 11,3 km/h (2 Bft) 97,87 %
25.07.2018 11:26 28,8 C 37,2 C 25,6 C 63 % 1013,3 hPa 0,0 l/m 2 min 0 min 652 W/m 11,3 km/h (2 Bft) 97,96 %
25.07.2018 11:28 28,9 C 37,2 C 25,6 C 63 % 1013,2 hPa 0,0 l/m 2 min 0 min 658 W/m 9,0 km/h (2 Bft) 97,96 %
25.07.2018 11:30 29,1 C 37,2 C 25,6 C 63 % 1013,3 hPa 0,0 l/m 2 min 0 min 658 W/m 6,8 km/h (2 Bft) 95,74 %
25.07.2018 11:32 29,2 C 37,2 C 25,6 C 62 % 1013,2 hPa 0,0 l/m 2 min 0 min 664 W/m 6,8 km/h (2 Bft) 97,83 %
25.07.2018 11:34 29,3 C 37,2 C 26,1 C 63 % 1013,2 hPa 0,0 l/m 2 min 0 min 669 W/m 11,3 km/h (2 Bft) 97,67 %
25.07.2018 11:38 29,6 C 37,8 C 26,1 C 61 % 1013,3 hPa 0,0 l/m 4 min 0 min 668 W/m 13,5 km/h (3 Bft) 95,88 %
25.07.2018 11:40 29,7 C 37,8 C 26,1 C 61 % 1013,2 hPa 0,0 l/m 2 min 0 min 677 W/m 11,3 km/h (2 Bft) 97,92 %
25.07.2018 11:42 29,8 C 37,8 C 26,1 C 62 % 1013,2 hPa 0,0 l/m 2 min 0 min 680 W/m 11,3 km/h (2 Bft) 97,87 %
25.07.2018 11:44 29,9 C 37,8 C 26,1 C 59 % 1013,2 hPa 0,0 l/m 2 min 0 min 684 W/m 13,5 km/h (3 Bft) 97,67 %
25.07.2018 11:46 30,1 C 37,8 C 26,7 C 60 % 1013,3 hPa 0,0 l/m 2 min 0 min 687 W/m 4,5 km/h (1 Bft) 96,00 %
25.07.2018 11:48 30,2 C 38,3 C 26,7 C 60 % 1013,3 hPa 0,0 l/m 2 min 0 min 689 W/m 6,8 km/h (2 Bft) 97,92 %
25.07.2018 11:50 30,3 C 37,8 C 26,7 C 59 % 1013,2 hPa 0,0 l/m 2 min 0 min 695 W/m 18,0 km/h (3 Bft) 97,87 %
25.07.2018 11:52 30,4 C 38,3 C 26,7 C 59 % 1013,2 hPa 0,0 l/m 2 min 0 min 699 W/m 9,0 km/h (2 Bft) 97,87 %
25.07.2018 11:54 30,5 C 37,8 C 26,7 C 59 % 1013,2 hPa 0,0 l/m 2 min 0 min 705 W/m 13,5 km/h (3 Bft) 97,83 %
25.07.2018 11:56 30,6 C 37,2 C 27,2 C 57 % 1013,2 hPa 0,0 l/m 2 min 0 min 709 W/m 9,0 km/h (2 Bft) 95,74 %
25.07.2018 11:58 30,7 C 37,2 C 27,2 C 58 % 1013,1 hPa 0,0 l/m 2 min 0 min 709 W/m 11,3 km/h (2 Bft) 97,87 %
25.07.2018 12:00 30,8 C 38,3 C 27,2 C 58 % 1013,2 hPa 0,0 l/m 2 min 0 min 710 W/m 9,0 km/h (2 Bft) 97,67 %
25.07.2018 12:02 30,9 C 38,9 C 27,2 C 58 % 1013,2 hPa 0,0 l/m 2 min 0 min 709 W/m 9,0 km/h (2 Bft) 100,00 %
25.07.2018 12:04 31,0 C 38,9 C 27,2 C 59 % 1013,2 hPa 0,0 l/m 2 min 0 min 710 W/m 9,0 km/h (2 Bft) 100,00 %
25.07.2018 12:08 31,2 C 39,4 C 27,2 C 58 % 1013,2 hPa 0,0 l/m 4 min 0 min 707 W/m 11,3 km/h (2 Bft) 98,78 %
25.07.2018 12:10 31,3 C 38,9 C 27,2 C 57 % 1013,2 hPa 0,0 l/m 2 min 0 min 721 W/m 9,0 km/h (2 Bft) 97,83 %
25.07.2018 12:12 31,3 C 38,3 C 27,2 C 56 % 1013,1 hPa 0,0 l/m 2 min 0 min 724 W/m 13,5 km/h (3 Bft) 98,15 %
25.07.2018 12:14 31,4 C 38,9 C 27,8 C 57 % 1013,1 hPa 0,0 l/m 2 min 0 min 724 W/m 6,8 km/h (2 Bft) 97,96 %
25.07.2018 12:16 31,4 C 38,3 C 27,8 C 56 % 1013,1 hPa 0,0 l/m 2 min 0 min 721 W/m 6,8 km/h (2 Bft) 98,00 %
25.07.2018 12:18 31,6 C 39,4 C 27,8 C 58 % 1013,2 hPa 0,0 l/m 2 min 0 min 683 W/m 6,8 km/h (2 Bft) 95,65 %
25.07.2018 12:20 31,6 C 39,4 C 27,8 C 57 % 1013,1 hPa 0,0 l/m 2 min 0 min 685 W/m 9,0 km/h (2 Bft) 96,30 %
25.07.2018 12:22 31,7 C 38,9 C 27,8 C 56 % 1013,2 hPa 0,0 l/m 2 min 0 min 648 W/m 13,5 km/h (3 Bft) 97,14 %
25.07.2018 12:24 31,7 C 37,2 C 27,8 C 55 % 1013,2 hPa 0,0 l/m 2 min 0 min 734 W/m 13,5 km/h (3 Bft) 97,87 %
25.07.2018 12:26 31,8 C 38,3 C 27,8 C 56 % 1013,2 hPa 0,0 l/m 2 min 0 min 736 W/m 9,0 km/h (2 Bft) 97,83 %
25.07.2018 12:28 31,8 C 38,9 C 27,8 C 57 % 1013,0 hPa 0,0 l/m 2 min 0 min 744 W/m 9,0 km/h (2 Bft) 98,00 %
25.07.2018 12:30 31,9 C 38,3 C 27,8 C 55 % 1013,1 hPa 0,0 l/m 2 min 0 min 744 W/m 9,0 km/h (2 Bft) 97,96 %
25.07.2018 12:32 31,9 C 37,8 C 28,3 C 55 % 1013,0 hPa 0,0 l/m 2 min 0 min 504 W/m 4,5 km/h (1 Bft) 97,87 %
25.07.2018 12:34 32,0 C 38,9 C 28,3 C 56 % 1013,0 hPa 0,0 l/m 2 min 0 min 434 W/m 9,0 km/h (2 Bft) 97,87 %
25.07.2018 12:36 32,1 C 38,9 C 28,3 C 55 % 1013,0 hPa 0,0 l/m 2 min 0 min 434 W/m 9,0 km/h (2 Bft) 97,67 %
25.07.2018 12:38 32,1 C 37,2 C 28,3 C 53 % 1013,0 hPa 0,0 l/m 2 min 0 min 434 W/m 9,0 km/h (2 Bft) 97,96 %
25.07.2018 12:40 32,2 C 37,8 C 28,3 C 54 % 1012,9 hPa 0,0 l/m 2 min 0 min 434 W/m 15,8 km/h (3 Bft) 95,92 %
25.07.2018 12:42 32,2 C 38,3 C 28,3 C 54 % 1012,9 hPa 0,0 l/m 2 min 0 min 670 W/m 11,3 km/h (2 Bft) 97,83 %
25.07.2018 12:44 32,2 C 38,9 C 28,3 C 54 % 1012,9 hPa 0,0 l/m 2 min 0 min 739 W/m 13,5 km/h (3 Bft) 97,67 %
25.07.2018 12:46 32,3 C 38,3 C 28,3 C 53 % 1012,9 hPa 0,0 l/m 2 min 0 min 747 W/m 15,8 km/h (3 Bft) 97,87 %
25.07.2018 12:48 32,3 C 38,3 C 28,3 C 54 % 1012,9 hPa 0,0 l/m 2 min 0 min 771 W/m 15,8 km/h (3 Bft) 98,00 %
25.07.2018 12:50 32,3 C 38,9 C 28,3 C 54 % 1012,8 hPa 0,0 l/m 2 min 0 min 772 W/m 13,5 km/h (3 Bft) 95,83 %
25.07.2018 12:52 32,4 C 38,9 C 28,3 C 54 % 1012,9 hPa 0,0 l/m 2 min 0 min 771 W/m 13,5 km/h (3 Bft) 97,83 %
25.07.2018 12:54 32,4 C 39,4 C 28,3 C 54 % 1012,9 hPa 0,0 l/m 2 min 0 min 772 W/m 9,0 km/h (2 Bft) 97,87 %
25.07.2018 12:56 32,4 C 39,4 C 28,9 C 55 % 1012,8 hPa 0,0 l/m 2 min 0 min 769 W/m 9,0 km/h (2 Bft) 100,00 %
25.07.2018 12:58 32,5 C 39,4 C 28,9 C 54 % 1012,9 hPa 0,0 l/m 2 min 0 min 777 W/m 9,0 km/h (2 Bft) 98,15 %
25.07.2018 13:00 32,5 C 38,9 C 28,9 C 53 % 1012,9 hPa 0,0 l/m 2 min 0 min 771 W/m 15,8 km/h (3 Bft) 97,96 %
25.07.2018 13:02 32,5 C 38,9 C 28,9 C 53 % 1012,9 hPa 0,0 l/m 2 min 0 min 759 W/m 6,8 km/h (2 Bft) 100,00 %
25.07.2018 13:04 32,6 C 38,9 C 28,9 C 53 % 1012,7 hPa 0,0 l/m 2 min 0 min 769 W/m 13,5 km/h (3 Bft) 100,00 %
25.07.2018 13:06 32,6 C 38,9 C 29,4 C 52 % 1012,8 hPa 0,0 l/m 2 min 0 min 776 W/m 9,0 km/h (2 Bft) 100,00 %
25.07.2018 13:08 32,7 C 40,0 C 29,4 C 53 % 1012,8 hPa 0,0 l/m 2 min 0 min 780 W/m 11,3 km/h (2 Bft) 100,00 %
25.07.2018 13:10 32,7 C 40,0 C 29,4 C 52 % 1012,7 hPa 0,0 l/m 2 min 0 min 777 W/m 9,0 km/h (2 Bft) 100,00 %
25.07.2018 13:12 32,8 C 40,0 C 30,0 C 52 % 1012,8 hPa 0,0 l/m 2 min 0 min 786 W/m 9,0 km/h (2 Bft) 100,00 %
25.07.2018 13:14 32,8 C 40,0 C 29,4 C 50 % 1012,8 hPa 0,0 l/m 2 min 0 min 793 W/m 18,0 km/h (3 Bft) 100,00 %
25.07.2018 13:16 32,8 C 39,4 C 29,4 C 50 % 1012,8 hPa 0,0 l/m 2 min 0 min 797 W/m 13,5 km/h (3 Bft) 100,00 %
25.07.2018 13:18 32,9 C 40,6 C 29,4 C 51 % 1012,8 hPa 0,0 l/m 2 min 0 min 797 W/m 4,5 km/h (1 Bft) 97,87 %
25.07.2018 13:20 32,9 C 40,6 C 30,0 C 52 % 1012,7 hPa 0,0 l/m 2 min 0 min 793 W/m 4,5 km/h (1 Bft) 100,00 %
25.07.2018 13:22 32,9 C 40,0 C 30,0 C 51 % 1012,8 hPa 0,0 l/m 2 min 0 min 792 W/m 9,0 km/h (2 Bft) 100,00 %
25.07.2018 13:24 33,0 C 39,4 C 30,0 C 49 % 1012,8 hPa 0,0 l/m 2 min 0 min 787 W/m 13,5 km/h (3 Bft) 100,00 %
25.07.2018 13:26 33,1 C 39,4 C 30,0 C 49 % 1012,8 hPa 0,0 l/m 2 min 0 min 804 W/m 13,5 km/h (3 Bft) 100,00 %
25.07.2018 13:28 33,1 C 37,8 C 30,0 C 49 % 1012,9 hPa 0,0 l/m 2 min 0 min 800 W/m 13,5 km/h (3 Bft) 100,00 %
25.07.2018 13:30 33,1 C 38,9 C 30,0 C 48 % 1012,8 hPa 0,0 l/m 2 min 0 min 804 W/m 11,3 km/h (2 Bft) 97,87 %
25.07.2018 13:32 33,2 C 39,4 C 29,4 C 48 % 1012,7 hPa 0,0 l/m 2 min 0 min 813 W/m 6,8 km/h (2 Bft) 94,29 %
25.07.2018 13:34 33,2 C 40,0 C 30,0 C 49 % 1012,7 hPa 0,0 l/m 2 min 0 min 811 W/m 13,5 km/h (3 Bft) 98,15 %
25.07.2018 13:36 33,2 C 38,9 C 30,0 C 48 % 1012,7 hPa 0,0 l/m 2 min 0 min 804 W/m 11,3 km/h (2 Bft) 98,00 %
25.07.2018 13:38 33,3 C 37,2 C 30,6 C 48 % 1012,7 hPa 0,0 l/m 2 min 0 min 803 W/m 11,3 km/h (2 Bft) 93,88 %
25.07.2018 13:40 33,3 C 35,6 C 30,0 C 49 % 1012,7 hPa 0,0 l/m 2 min 0 min 806 W/m 9,0 km/h (2 Bft) 97,83 %
25.07.2018 13:42 33,3 C 34,4 C 30,6 C 49 % 1012,7 hPa 0,0 l/m 2 min 0 min 812 W/m 6,8 km/h (2 Bft) 97,87 %
25.07.2018 13:44 33,3 C 33,9 C 30,6 C 48 % 1012,7 hPa 0,0 l/m 2 min 0 min 805 W/m 11,3 km/h (2 Bft) 95,35 %
25.07.2018 13:46 33,3 C 33,3 C 30,6 C 48 % 1012,7 hPa 0,0 l/m 2 min 0 min 803 W/m 11,3 km/h (2 Bft) 97,96 %
25.07.2018 13:48 33,4 C 33,3 C 30,6 C 49 % 1012,6 hPa 0,0 l/m 2 min 0 min 804 W/m 9,0 km/h (2 Bft) 97,87 %
25.07.2018 13:50 33,4 C 33,3 C 30,0 C 48 % 1012,6 hPa 0,0 l/m 2 min 0 min 803 W/m 6,8 km/h (2 Bft) 97,96 %
25.07.2018 13:52 33,4 C 33,3 C 30,6 C 49 % 1012,6 hPa 0,0 l/m 2 min 0 min 810 W/m 9,0 km/h (2 Bft) 97,83 %
25.07.2018 13:54 33,4 C 33,3 C 30,6 C 49 % 1012,6 hPa 0,0 l/m 2 min 0 min 812 W/m 15,8 km/h (3 Bft) 97,87 %
25.07.2018 13:56 33,4 C 33,3 C 30,6 C 48 % 1012,6 hPa 0,0 l/m 2 min 0 min 816 W/m 6,8 km/h (2 Bft) 97,87 %
25.07.2018 13:58 33,4 C 33,3 C 30,6 C 49 % 1012,5 hPa 0,0 l/m 2 min 0 min 804 W/m 9,0 km/h (2 Bft) 97,87 %
25.07.2018 14:00 33,4 C 33,3 C 30,6 C 48 % 1012,5 hPa 0,0 l/m 2 min 0 min 800 W/m 9,0 km/h (2 Bft) 97,62 %
25.07.2018 14:02 33,4 C 33,3 C 30,6 C 49 % 1012,6 hPa 0,0 l/m 2 min 0 min 807 W/m 11,3 km/h (2 Bft) 96,00 %
25.07.2018 14:04 33,4 C 33,3 C 30,6 C 49 % 1012,5 hPa 0,0 l/m 2 min 0 min 811 W/m 15,8 km/h (3 Bft) 93,75 %
25.07.2018 14:06 33,4 C 33,3 C 30,6 C 49 % 1012,5 hPa 0,0 l/m 2 min 0 min 813 W/m 9,0 km/h (2 Bft) 95,74 %
25.07.2018 14:08 33,4 C 33,3 C 30,6 C 49 % 1012,4 hPa 0,0 l/m 2 min 0 min 811 W/m 9,0 km/h (2 Bft) 95,35 %
25.07.2018 14:10 33,4 C 33,3 C 30,6 C 50 % 1012,4 hPa 0,0 l/m 2 min 0 min 812 W/m 9,0 km/h (2 Bft) 95,92 %
25.07.2018 14:12 33,4 C 33,3 C 30,0 C 50 % 1012,4 hPa 0,0 l/m 2 min 0 min 813 W/m 11,3 km/h (2 Bft) 95,92 %
25.07.2018 14:14 33,4 C 33,3 C 30,6 C 49 % 1012,4 hPa 0,0 l/m 2 min 0 min 807 W/m 6,8 km/h (2 Bft) 93,48 %
25.07.2018 14:16 33,4 C 33,3 C 30,6 C 49 % 1012,3 hPa 0,0 l/m 2 min 0 min 807 W/m 6,8 km/h (2 Bft) 95,74 %
25.07.2018 14:18 33,4 C 33,3 C 30,6 C 49 % 1012,4 hPa 0,0 l/m 2 min 0 min 808 W/m 11,3 km/h (2 Bft) 95,74 %
25.07.2018 14:20 33,3 C 33,3 C 30,6 C 49 % 1012,4 hPa 0,0 l/m 2 min 0 min 819 W/m 11,3 km/h (2 Bft) 95,74 %
25.07.2018 14:22 33,4 C 33,3 C 30,6 C 49 % 1012,4 hPa 0,0 l/m 2 min 0 min 826 W/m 20,3 km/h (4 Bft) 95,74 %
25.07.2018 14:24 33,4 C 33,3 C 30,6 C 49 % 1012,4 hPa 0,0 l/m 2 min 0 min 829 W/m 11,3 km/h (2 Bft) 95,74 %
25.07.2018 14:26 33,4 C 33,9 C 30,6 C 48 % 1012,3 hPa 0,0 l/m 2 min 0 min 812 W/m 9,0 km/h (2 Bft) 93,48 %
25.07.2018 14:28 33,4 C 33,9 C 30,6 C 49 % 1012,3 hPa 0,0 l/m 2 min 0 min 796 W/m 6,8 km/h (2 Bft) 95,74 %
25.07.2018 14:30 33,4 C 33,9 C 30,6 C 49 % 1012,3 hPa 0,0 l/m 2 min 0 min 792 W/m 6,8 km/h (2 Bft) 95,74 %
25.07.2018 14:32 33,4 C 33,9 C 30,6 C 49 % 1012,2 hPa 0,0 l/m 2 min 0 min 810 W/m 6,8 km/h (2 Bft) 95,74 %
25.07.2018 14:34 33,4 C 33,9 C 30,6 C 49 % 1012,2 hPa 0,0 l/m 2 min 0 min 813 W/m 9,0 km/h (2 Bft) 95,74 %
25.07.2018 14:36 33,4 C 33,9 C 30,6 C 50 % 1012,1 hPa 0,0 l/m 2 min 0 min 816 W/m 4,5 km/h (1 Bft) 95,74 %
25.07.2018 14:38 33,4 C 33,9 C 30,6 C 49 % 1012,1 hPa 0,0 l/m 2 min 0 min 818 W/m 15,8 km/h (3 Bft) 93,48 %
25.07.2018 14:40 33,4 C 33,9 C 30,6 C 49 % 1012,1 hPa 0,0 l/m 2 min 0 min 826 W/m 9,0 km/h (2 Bft) 93,62 %
25.07.2018 14:42 33,5 C 33,9 C 31,1 C 49 % 1012,1 hPa 0,0 l/m 2 min 0 min 825 W/m 15,8 km/h (3 Bft) 95,74 %
25.07.2018 14:44 33,5 C 33,9 C 31,1 C 48 % 1012,1 hPa 0,0 l/m 2 min 0 min 814 W/m 15,8 km/h (3 Bft) 100,00 %
25.07.2018 14:46 33,6 C 33,9 C 30,6 C 48 % 1012,0 hPa 0,0 l/m 2 min 0 min 812 W/m 11,3 km/h (2 Bft) 97,87 %
25.07.2018 14:48 33,6 C 33,9 C 30,6 C 47 % 1012,1 hPa 0,0 l/m 2 min 0 min 821 W/m 9,0 km/h (2 Bft) 100,00 %
25.07.2018 14:50 33,6 C 33,9 C 30,6 C 48 % 1012,0 hPa 0,0 l/m 2 min 0 min 817 W/m 13,5 km/h (3 Bft) 93,48 %
25.07.2018 14:52 33,6 C 34,4 C 31,1 C 48 % 1012,1 hPa 0,0 l/m 2 min 0 min 845 W/m 6,8 km/h (2 Bft) 97,87 %
25.07.2018 14:54 33,6 C 33,9 C 31,1 C 48 % 1012,1 hPa 0,0 l/m 2 min 0 min 789 W/m 6,8 km/h (2 Bft) 100,00 %
25.07.2018 14:56 33,6 C 33,9 C 30,6 C 48 % 1012,1 hPa 0,0 l/m 0 min 0 min 208 W/m 9,0 km/h (2 Bft) 97,87 %
25.07.2018 14:58 33,6 C 33,3 C 30,6 C 48 % 1012,0 hPa 0,0 l/m 0 min 0 min 207 W/m 13,5 km/h (3 Bft) 97,87 %
25.07.2018 15:00 33,6 C 32,8 C 30,6 C 47 % 1012,0 hPa 0,0 l/m 0 min 0 min 194 W/m 6,8 km/h (2 Bft) 97,87 %
25.07.2018 15:02 33,6 C 32,8 C 30,0 C 47 % 1011,9 hPa 0,0 l/m 0 min 0 min 201 W/m 15,8 km/h (3 Bft) 97,83 %
25.07.2018 15:04 33,5 C 32,8 C 30,0 C 47 % 1012,0 hPa 0,0 l/m 0 min 0 min 213 W/m 9,0 km/h (2 Bft) 100,00 %
25.07.2018 15:06 33,4 C 32,8 C 30,0 C 48 % 1012,0 hPa 0,0 l/m 0 min 0 min 222 W/m 9,0 km/h (2 Bft) 100,00 %
25.07.2018 15:08 33,3 C 32,8 C 30,0 C 48 % 1012,0 hPa 0,0 l/m 0 min 0 min 254 W/m 6,8 km/h (2 Bft) 95,74 %
25.07.2018 15:10 33,3 C 32,8 C 30,0 C 49 % 1012,0 hPa 0,0 l/m 0 min 0 min 274 W/m 13,5 km/h (3 Bft) 97,87 %
25.07.2018 15:12 33,3 C 33,3 C 30,0 C 49 % 1012,0 hPa 0,0 l/m 0 min 0 min 345 W/m 6,8 km/h (2 Bft) 97,87 %
25.07.2018 15:14 33,2 C 32,8 C 30,6 C 47 % 1012,0 hPa 0,0 l/m 0 min 0 min 380 W/m 11,3 km/h (2 Bft) 95,65 %
25.07.2018 15:16 33,2 C 33,3 C 30,6 C 48 % 1012,0 hPa 0,0 l/m 2 min 0 min 643 W/m 6,8 km/h (2 Bft) 97,87 %
25.07.2018 15:18 33,2 C 33,3 C 30,6 C 48 % 1011,9 hPa 0,0 l/m 2 min 0 min 874 W/m 4,5 km/h (1 Bft) 95,74 %
25.07.2018 15:20 33,2 C 33,3 C 30,6 C 48 % 1012,0 hPa 0,0 l/m 2 min 0 min 689 W/m 6,8 km/h (2 Bft) 97,87 %
25.07.2018 15:22 33,2 C 32,8 C 30,6 C 47 % 1011,9 hPa 0,0 l/m 0 min 0 min 249 W/m 6,8 km/h (2 Bft) 97,87 %
25.07.2018 15:24 33,2 C 32,8 C 30,6 C 46 % 1012,0 hPa 0,0 l/m 0 min 0 min 265 W/m 9,0 km/h (2 Bft) 97,83 %
25.07.2018 15:26 33,1 C 33,3 C 30,6 C 47 % 1011,9 hPa 0,0 l/m 2 min 0 min 442 W/m 11,3 km/h (2 Bft) 97,87 %
25.07.2018 15:28 33,1 C 33,9 C 30,6 C 48 % 1012,0 hPa 0,0 l/m 2 min 0 min 849 W/m 6,8 km/h (2 Bft) 95,74 %
25.07.2018 15:30 33,1 C 33,9 C 30,6 C 47 % 1012,0 hPa 0,0 l/m 2 min 0 min 858 W/m 9,0 km/h (2 Bft) 97,87 %
25.07.2018 15:32 33,1 C 34,4 C 30,6 C 48 % 1011,9 hPa 0,0 l/m 2 min 0 min 849 W/m 4,5 km/h (1 Bft) 95,74 %
25.07.2018 15:34 33,2 C 34,4 C 31,1 C 47 % 1011,9 hPa 0,0 l/m 2 min 0 min 838 W/m 4,5 km/h (1 Bft) 97,87 %
25.07.2018 15:36 33,2 C 34,4 C 31,1 C 47 % 1011,9 hPa 0,0 l/m 2 min 0 min 873 W/m 2,3 km/h (1 Bft) 93,48 %
25.07.2018 15:38 33,2 C 35,0 C 31,1 C 49 % 1011,9 hPa 0,0 l/m 2 min 0 min 890 W/m 6,8 km/h (2 Bft) 97,87 %
25.07.2018 15:40 33,3 C 35,6 C 31,1 C 47 % 1011,9 hPa 0,0 l/m 2 min 0 min 887 W/m 11,3 km/h (2 Bft) 97,87 %
25.07.2018 15:42 33,4 C 35,0 C 31,1 C 47 % 1011,9 hPa 0,0 l/m 2 min 0 min 877 W/m 6,8 km/h (2 Bft) 97,87 %
25.07.2018 15:44 33,4 C 35,0 C 31,1 C 46 % 1011,9 hPa 0,0 l/m 2 min 0 min 876 W/m 9,0 km/h (2 Bft) 97,87 %
25.07.2018 15:46 33,6 C 35,6 C 31,7 C 47 % 1011,9 hPa 0,0 l/m 2 min 0 min 864 W/m 9,0 km/h (2 Bft) 97,92 %
25.07.2018 15:48 33,6 C 35,0 C 31,7 C 47 % 1011,8 hPa 0,0 l/m 2 min 0 min 863 W/m 4,5 km/h (1 Bft) 97,92 %
25.07.2018 15:50 33,7 C 35,6 C 31,1 C 49 % 1011,8 hPa 0,0 l/m 2 min 0 min 863 W/m 9,0 km/h (2 Bft) 97,92 %
25.07.2018 15:52 33,8 C 36,7 C 31,7 C 48 % 1011,8 hPa 0,0 l/m 2 min 0 min 872 W/m 11,3 km/h (2 Bft) 97,87 %
25.07.2018 15:54 33,9 C 37,2 C 31,7 C 48 % 1011,8 hPa 0,0 l/m 2 min 0 min 881 W/m 13,5 km/h (3 Bft) 97,87 %
25.07.2018 15:56 34,0 C 37,8 C 31,7 C 47 % 1011,8 hPa 0,0 l/m 2 min 0 min 879 W/m 13,5 km/h (3 Bft) 97,14 %
25.07.2018 15:58 34,1 C 37,8 C 31,7 C 47 % 1011,8 hPa 0,0 l/m 2 min 0 min 852 W/m 6,8 km/h (2 Bft) 98,31 %
25.07.2018 16:00 34,1 C 37,2 C 31,7 C 47 % 1011,8 hPa 0,0 l/m 2 min 0 min 820 W/m 6,8 km/h (2 Bft) 97,83 %
25.07.2018 16:02 34,2 C 37,8 C 31,7 C 46 % 1011,8 hPa 0,0 l/m 2 min 0 min 782 W/m 13,5 km/h (3 Bft) 97,14 %
25.07.2018 16:04 34,2 C 37,8 C 31,7 C 46 % 1011,8 hPa 0,0 l/m 2 min 0 min 748 W/m 6,8 km/h (2 Bft) 97,87 %
25.07.2018 16:06 34,3 C 38,3 C 31,7 C 45 % 1011,8 hPa 0,0 l/m 2 min 0 min 715 W/m 9,0 km/h (2 Bft) 97,87 %
25.07.2018 16:08 34,4 C 38,3 C 31,7 C 47 % 1011,7 hPa 0,0 l/m 2 min 0 min 674 W/m 9,0 km/h (2 Bft) 97,87 %
25.07.2018 16:10 34,4 C 36,7 C 31,7 C 45 % 1011,7 hPa 0,0 l/m 2 min 0 min 522 W/m 6,8 km/h (2 Bft) 97,87 %
25.07.2018 16:12 34,4 C 35,6 C 31,1 C 45 % 1011,7 hPa 0,0 l/m 0 min 0 min 183 W/m 11,3 km/h (2 Bft) 95,74 %
25.07.2018 16:14 34,4 C 33,9 C 30,6 C 46 % 1011,8 hPa 0,0 l/m 0 min 2 min 167 W/m 9,0 km/h (2 Bft) 97,83 %
25.07.2018 16:16 34,4 C 31,1 C 30,0 C 47 % 1011,8 hPa 0,0 l/m 0 min 2 min 154 W/m 9,0 km/h (2 Bft) 100,00 %
25.07.2018 16:18 34,3 C 30,6 C 28,3 C 49 % 1011,9 hPa 0,0 l/m 0 min 2 min 143 W/m 9,0 km/h (2 Bft) 100,00 %
25.07.2018 16:20 34,3 C 28,9 C 28,3 C 52 % 1011,9 hPa 0,0 l/m 0 min 2 min 129 W/m 4,5 km/h (1 Bft) 97,87 %
25.07.2018 16:22 34,2 C 26,7 C 26,7 C 53 % 1011,9 hPa 0,0 l/m 0 min 2 min 116 W/m 6,8 km/h (2 Bft) 100,00 %
25.07.2018 16:24 34,1 C 25,0 C 26,1 C 54 % 1011,8 hPa 0,0 l/m 0 min 2 min 108 W/m 4,5 km/h (1 Bft) 100,00 %
25.07.2018 16:26 33,9 C 25,6 C 26,7 C 53 % 1011,8 hPa 0,0 l/m 0 min 2 min 105 W/m 6,8 km/h (2 Bft) 100,00 %
25.07.2018 16:28 33,7 C 26,1 C 26,7 C 54 % 1011,8 hPa 0,2 l/m 0 min 0 min 105 W/m 6,8 km/h (2 Bft) 97,87 %
25.07.2018 16:30 33,4 C 26,7 C 27,2 C 51 % 1011,8 hPa 0,0 l/m 0 min 0 min 102 W/m 15,8 km/h (3 Bft) 100,00 %
25.07.2018 16:32 33,1 C 27,8 C 27,8 C 49 % 1011,8 hPa 0,0 l/m 0 min 0 min 98 W/m 11,3 km/h (2 Bft) 100,00 %
25.07.2018 16:34 32,9 C 27,8 C 27,8 C 50 % 1011,8 hPa 0,0 l/m 0 min 2 min 95 W/m 9,0 km/h (2 Bft) 100,00 %
25.07.2018 16:36 32,8 C 26,1 C 27,2 C 53 % 1011,8 hPa 0,0 l/m 0 min 2 min 94 W/m 2,3 km/h (1 Bft) 100,00 %
25.07.2018 16:38 32,6 C 25,0 C 27,2 C 56 % 1011,8 hPa 0,0 l/m 0 min 2 min 95 W/m 6,8 km/h (2 Bft) 97,83 %
25.07.2018 16:40 32,4 C 23,3 C 25,6 C 57 % 1011,8 hPa 0,0 l/m 0 min 2 min 97 W/m 4,5 km/h (1 Bft) 97,87 %
25.07.2018 16:42 32,2 C 23,3 C 26,1 C 58 % 1011,8 hPa 0,0 l/m 0 min 2 min 98 W/m 4,5 km/h (1 Bft) 97,87 %
25.07.2018 16:44 31,9 C 23,3 C 26,1 C 59 % 1011,8 hPa 0,0 l/m 0 min 2 min 99 W/m 4,5 km/h (1 Bft) 97,87 %
25.07.2018 16:46 31,7 C 23,9 C 26,1 C 61 % 1011,8 hPa 0,0 l/m 0 min 2 min 100 W/m 4,5 km/h (1 Bft) 97,87 %
25.07.2018 16:48 31,4 C 23,3 C 26,7 C 59 % 1011,8 hPa 0,2 l/m 0 min 2 min 101 W/m 9,0 km/h (2 Bft) 95,74 %
25.07.2018 16:50 31,1 C 23,9 C 26,7 C 59 % 1011,9 hPa 0,0 l/m 0 min 2 min 104 W/m 9,0 km/h (2 Bft) 97,83 %
25.07.2018 16:52 30,8 C 23,9 C 26,7 C 59 % 1011,8 hPa 0,0 l/m 0 min 2 min 107 W/m 6,8 km/h (2 Bft) 93,62 %
25.07.2018 16:54 30,5 C 25,6 C 26,7 C 58 % 1011,8 hPa 0,0 l/m 0 min 0 min 110 W/m 4,5 km/h (1 Bft) 97,87 %
25.07.2018 16:56 30,3 C 26,7 C 26,7 C 59 % 1011,7 hPa 0,0 l/m 0 min 0 min 113 W/m 6,8 km/h (2 Bft) 97,87 %
25.07.2018 16:58 30,1 C 27,2 C 26,7 C 60 % 1011,8 hPa 0,0 l/m 0 min 0 min 116 W/m 4,5 km/h (1 Bft) 97,87 %
25.07.2018 17:00 30,0 C 27,2 C 26,7 C 62 % 1011,8 hPa 0,0 l/m 0 min 0 min 120 W/m 6,8 km/h (2 Bft) 97,87 %
25.07.2018 17:02 29,8 C 27,8 C 26,7 C 59 % 1011,8 hPa 0,0 l/m 0 min 0 min 124 W/m 6,8 km/h (2 Bft) 96,36 %
25.07.2018 17:04 29,7 C 27,8 C 27,2 C 58 % 1011,8 hPa 0,0 l/m 0 min 0 min 130 W/m 9,0 km/h (2 Bft) 93,62 %
25.07.2018 17:06 29,6 C 27,8 C 27,2 C 60 % 1011,8 hPa 0,0 l/m 0 min 0 min 137 W/m 11,3 km/h (2 Bft) 93,48 %
25.07.2018 17:08 29,5 C 27,8 C 27,2 C 60 % 1011,9 hPa 0,0 l/m 0 min 0 min 143 W/m 9,0 km/h (2 Bft) 95,74 %
25.07.2018 17:10 29,4 C 27,8 C 26,7 C 61 % 1011,7 hPa 0,0 l/m 0 min 0 min 152 W/m 2,3 km/h (1 Bft) 95,74 %
25.07.2018 17:12 29,4 C 27,8 C 26,7 C 61 % 1011,7 hPa 0,0 l/m 0 min 0 min 165 W/m 11,3 km/h (2 Bft) 95,74 %
25.07.2018 17:14 29,3 C 28,3 C 27,2 C 61 % 1011,7 hPa 0,0 l/m 0 min 0 min 184 W/m 9,0 km/h (2 Bft) 95,74 %
25.07.2018 17:16 29,3 C 28,3 C 27,2 C 62 % 1011,6 hPa 0,0 l/m 0 min 0 min 199 W/m 13,5 km/h (3 Bft) 95,65 %
25.07.2018 17:18 29,2 C 28,9 C 27,2 C 61 % 1011,5 hPa 0,0 l/m 0 min 0 min 209 W/m 13,5 km/h (3 Bft) 97,87 %
25.07.2018 17:20 29,2 C 28,9 C 27,2 C 61 % 1011,6 hPa 0,0 l/m 0 min 0 min 222 W/m 11,3 km/h (2 Bft) 97,87 %
25.07.2018 17:22 29,2 C 29,4 C 27,2 C 61 % 1011,5 hPa 0,0 l/m 0 min 0 min 220 W/m 11,3 km/h (2 Bft) 97,87 %
25.07.2018 17:24 29,2 C 29,4 C 27,2 C 62 % 1011,5 hPa 0,0 l/m 0 min 0 min 216 W/m 11,3 km/h (2 Bft) 95,74 %
25.07.2018 17:26 29,2 C 29,4 C 27,2 C 62 % 1011,5 hPa 0,0 l/m 0 min 0 min 231 W/m 13,5 km/h (3 Bft) 97,87 %
25.07.2018 17:28 29,2 C 29,4 C 27,2 C 62 % 1011,5 hPa 0,0 l/m 0 min 0 min 236 W/m 9,0 km/h (2 Bft) 97,83 %
25.07.2018 17:30 29,2 C 29,4 C 27,8 C 62 % 1011,4 hPa 0,0 l/m 0 min 0 min 234 W/m 9,0 km/h (2 Bft) 97,87 %
25.07.2018 17:32 29,2 C 29,4 C 27,8 C 61 % 1011,4 hPa 0,0 l/m 0 min 0 min 203 W/m 4,5 km/h (1 Bft) 95,74 %
25.07.2018 17:34 29,2 C 29,4 C 27,8 C 61 % 1011,4 hPa 0,0 l/m 0 min 0 min 207 W/m 4,5 km/h (1 Bft) 97,87 %
25.07.2018 17:36 29,2 C 29,4 C 27,8 C 61 % 1011,4 hPa 0,0 l/m 0 min 0 min 238 W/m 9,0 km/h (2 Bft) 97,87 %
25.07.2018 17:38 29,2 C 30,0 C 27,8 C 61 % 1011,4 hPa 0,0 l/m 0 min 0 min 243 W/m 9,0 km/h (2 Bft) 97,87 %
25.07.2018 17:40 29,2 C 30,0 C 27,8 C 60 % 1011,4 hPa 0,0 l/m 0 min 0 min 228 W/m 6,8 km/h (2 Bft) 97,83 %
25.07.2018 17:42 29,3 C 30,0 C 28,3 C 58 % 1011,5 hPa 0,0 l/m 0 min 0 min 216 W/m 15,8 km/h (3 Bft) 97,87 %
25.07.2018 17:44 29,3 C 30,0 C 28,3 C 58 % 1011,5 hPa 0,0 l/m 0 min 0 min 229 W/m 4,5 km/h (1 Bft) 97,87 %
25.07.2018 17:46 29,3 C 30,0 C 28,3 C 58 % 1011,6 hPa 0,0 l/m 0 min 0 min 252 W/m 15,8 km/h (3 Bft) 97,87 %
25.07.2018 17:48 29,4 C 30,0 C 28,3 C 59 % 1011,6 hPa 0,0 l/m 2 min 0 min 286 W/m 11,3 km/h (2 Bft) 97,87 %
25.07.2018 17:50 29,4 C 30,6 C 28,3 C 59 % 1011,7 hPa 0,0 l/m 2 min 0 min 344 W/m 9,0 km/h (2 Bft) 97,87 %
25.07.2018 17:52 29,4 C 30,6 C 28,3 C 58 % 1011,8 hPa 0,0 l/m 2 min 0 min 399 W/m 13,5 km/h (3 Bft) 97,87 %
25.07.2018 17:54 29,6 C 30,6 C 28,3 C 57 % 1011,8 hPa 0,0 l/m 0 min 0 min 224 W/m 11,3 km/h (2 Bft) 97,87 %
25.07.2018 17:56 29,6 C 30,6 C 28,3 C 56 % 1011,8 hPa 0,0 l/m 2 min 0 min 267 W/m 11,3 km/h (2 Bft) 100,00 %
25.07.2018 17:58 29,7 C 30,6 C 28,3 C 56 % 1011,8 hPa 0,0 l/m 2 min 0 min 370 W/m 9,0 km/h (2 Bft) 100,00 %
25.07.2018 18:00 29,7 C 31,1 C 28,3 C 56 % 1011,8 hPa 0,0 l/m 2 min 0 min 490 W/m 11,3 km/h (2 Bft) 100,00 %
25.07.2018 18:02 29,8 C 31,1 C 28,9 C 56 % 1011,8 hPa 0,0 l/m 2 min 0 min 504 W/m 11,3 km/h (2 Bft) 100,00 %
25.07.2018 18:04 29,8 C 31,7 C 28,9 C 56 % 1011,9 hPa 0,0 l/m 2 min 0 min 527 W/m 9,0 km/h (2 Bft) 97,96 %
25.07.2018 18:08 30,1 C 31,7 C 28,9 C 56 % 1011,8 hPa 0,0 l/m 4 min 0 min 550 W/m 13,5 km/h (3 Bft) 100,00 %
25.07.2018 18:10 30,1 C 31,7 C 28,9 C 56 % 1011,6 hPa 0,0 l/m 2 min 0 min 570 W/m 11,3 km/h (2 Bft) 100,00 %
25.07.2018 18:12 30,2 C 31,7 C 28,9 C 56 % 1011,6 hPa 0,0 l/m 2 min 0 min 555 W/m 20,3 km/h (4 Bft) 100,00 %
25.07.2018 18:14 30,3 C 31,7 C 29,4 C 55 % 1011,6 hPa 0,0 l/m 2 min 0 min 520 W/m 9,0 km/h (2 Bft) 100,00 %
25.07.2018 18:16 30,4 C 31,7 C 28,9 C 55 % 1011,7 hPa 0,0 l/m 2 min 0 min 480 W/m 13,5 km/h (3 Bft) 100,00 %
25.07.2018 18:18 30,4 C 31,7 C 28,9 C 55 % 1011,6 hPa 0,0 l/m 2 min 0 min 447 W/m 11,3 km/h (2 Bft) 100,00 %
25.07.2018 18:20 30,5 C 31,1 C 28,9 C 55 % 1011,7 hPa 0,0 l/m 2 min 0 min 434 W/m 11,3 km/h (2 Bft) 100,00 %
25.07.2018 18:22 30,6 C 31,1 C 28,9 C 54 % 1011,7 hPa 0,0 l/m 2 min 0 min 425 W/m 20,3 km/h (4 Bft) 100,00 %
25.07.2018 18:24 30,6 C 31,1 C 28,9 C 55 % 1011,6 hPa 0,0 l/m 2 min 0 min 443 W/m 11,3 km/h (2 Bft) 100,00 %
25.07.2018 18:26 30,7 C 31,1 C 28,9 C 55 % 1011,6 hPa 0,0 l/m 2 min 0 min 414 W/m 6,8 km/h (2 Bft) 100,00 %
25.07.2018 18:28 30,7 C 31,1 C 28,9 C 54 % 1011,5 hPa 0,0 l/m 2 min 0 min 394 W/m 13,5 km/h (3 Bft) 100,00 %
25.07.2018 18:30 30,8 C 31,1 C 28,9 C 55 % 1011,5 hPa 0,0 l/m 2 min 0 min 397 W/m 9,0 km/h (2 Bft) 100,00 %
25.07.2018 18:32 30,8 C 31,1 C 28,9 C 56 % 1011,5 hPa 0,0 l/m 2 min 0 min 395 W/m 6,8 km/h (2 Bft) 100,00 %
25.07.2018 18:34 30,8 C 31,1 C 28,9 C 55 % 1011,4 hPa 0,0 l/m 2 min 0 min 390 W/m 9,0 km/h (2 Bft) 100,00 %
25.07.2018 18:36 30,8 C 31,1 C 28,9 C 55 % 1011,4 hPa 0,0 l/m 2 min 0 min 374 W/m 4,5 km/h (1 Bft) 97,83 %
25.07.2018 18:38 30,9 C 31,1 C 28,9 C 54 % 1011,4 hPa 0,0 l/m 2 min 0 min 345 W/m 6,8 km/h (2 Bft) 97,87 %
25.07.2018 18:40 30,9 C 31,1 C 28,9 C 54 % 1011,4 hPa 0,0 l/m 2 min 0 min 338 W/m 9,0 km/h (2 Bft) 97,87 %
25.07.2018 18:42 30,9 C 30,6 C 28,9 C 53 % 1011,4 hPa 0,0 l/m 2 min 0 min 217 W/m 4,5 km/h (1 Bft) 98,15 %
25.07.2018 18:44 30,9 C 31,1 C 28,9 C 54 % 1011,4 hPa 0,0 l/m 2 min 0 min 313 W/m 9,0 km/h (2 Bft) 97,87 %
25.07.2018 18:46 30,9 C 31,1 C 28,9 C 54 % 1011,4 hPa 0,0 l/m 2 min 0 min 363 W/m 2,3 km/h (1 Bft) 97,87 %
25.07.2018 18:48 30,9 C 31,1 C 28,9 C 54 % 1011,5 hPa 0,0 l/m 2 min 0 min 354 W/m 4,5 km/h (1 Bft) 100,00 %
25.07.2018 18:50 30,9 C 30,6 C 28,9 C 54 % 1011,4 hPa 0,0 l/m 2 min 0 min 229 W/m 6,8 km/h (2 Bft) 95,92 %
25.07.2018 18:52 30,9 C 30,6 C 28,9 C 53 % 1011,4 hPa 0,0 l/m 2 min 0 min 307 W/m 9,0 km/h (2 Bft) 97,92 %
25.07.2018 18:54 30,9 C 31,1 C 28,9 C 52 % 1011,3 hPa 0,0 l/m 2 min 0 min 338 W/m 9,0 km/h (2 Bft) 100,00 %
25.07.2018 18:56 30,9 C 31,1 C 28,9 C 52 % 1011,4 hPa 0,0 l/m 2 min 0 min 327 W/m 9,0 km/h (2 Bft) 100,00 %
25.07.2018 18:58 30,9 C 31,1 C 28,9 C 51 % 1011,5 hPa 0,0 l/m 2 min 0 min 277 W/m 11,3 km/h (2 Bft) 100,00 %
25.07.2018 19:00 31,0 C 31,1 C 28,9 C 52 % 1011,5 hPa 0,0 l/m 2 min 0 min 318 W/m 6,8 km/h (2 Bft) 97,87 %
25.07.2018 19:02 31,0 C 31,1 C 28,9 C 52 % 1011,5 hPa 0,0 l/m 2 min 0 min 330 W/m 6,8 km/h (2 Bft) 97,83 %
25.07.2018 19:04 31,0 C 31,1 C 28,9 C 52 % 1011,5 hPa 0,0 l/m 2 min 0 min 236 W/m 6,8 km/h (2 Bft) 100,00 %
25.07.2018 19:06 31,0 C 31,1 C 28,9 C 53 % 1011,5 hPa 0,0 l/m 2 min 0 min 192 W/m 6,8 km/h (2 Bft) 97,87 %
25.07.2018 19:08 31,0 C 31,1 C 28,9 C 53 % 1011,4 hPa 0,0 l/m 2 min 0 min 253 W/m 6,8 km/h (2 Bft) 95,74 %
25.07.2018 19:10 31,0 C 31,1 C 28,9 C 53 % 1011,5 hPa 0,0 l/m 2 min 0 min 275 W/m 4,5 km/h (1 Bft) 95,74 %
25.07.2018 19:12 31,1 C 31,1 C 28,9 C 53 % 1011,5 hPa 0,0 l/m 2 min 0 min 232 W/m 6,8 km/h (2 Bft) 95,74 %
25.07.2018 19:14 31,1 C 31,1 C 28,9 C 53 % 1011,5 hPa 0,0 l/m 2 min 0 min 223 W/m 9,0 km/h (2 Bft) 95,65 %
25.07.2018 19:16 31,1 C 31,1 C 28,9 C 52 % 1011,5 hPa 0,0 l/m 2 min 0 min 210 W/m 13,5 km/h (3 Bft) 95,74 %
25.07.2018 19:18 31,1 C 31,1 C 28,9 C 52 % 1011,5 hPa 0,0 l/m 2 min 0 min 199 W/m 6,8 km/h (2 Bft) 95,74 %
25.07.2018 19:20 31,1 C 31,1 C 28,9 C 52 % 1011,5 hPa 0,0 l/m 2 min 0 min 193 W/m 9,0 km/h (2 Bft) 93,62 %
25.07.2018 19:22 31,1 C 31,1 C 28,9 C 50 % 1011,5 hPa 0,0 l/m 2 min 0 min 190 W/m 11,3 km/h (2 Bft) 95,74 %
25.07.2018 19:24 31,1 C 31,1 C 28,9 C 51 % 1011,5 hPa 0,0 l/m 2 min 0 min 191 W/m 6,8 km/h (2 Bft) 93,48 %
25.07.2018 19:26 31,1 C 31,1 C 28,9 C 50 % 1011,5 hPa 0,0 l/m 2 min 0 min 196 W/m 11,3 km/h (2 Bft) 95,74 %
25.07.2018 19:28 31,1 C 31,1 C 28,9 C 51 % 1011,5 hPa 0,0 l/m 2 min 0 min 207 W/m 9,0 km/h (2 Bft) 97,87 %
25.07.2018 19:30 31,1 C 31,1 C 28,9 C 51 % 1011,5 hPa 0,0 l/m 2 min 0 min 188 W/m 6,8 km/h (2 Bft) 95,74 %
25.07.2018 19:32 31,2 C 31,1 C 28,9 C 51 % 1011,5 hPa 0,0 l/m 2 min 0 min 179 W/m 6,8 km/h (2 Bft) 95,74 %
25.07.2018 19:34 31,2 C 31,1 C 28,9 C 50 % 1011,5 hPa 0,0 l/m 2 min 0 min 185 W/m 6,8 km/h (2 Bft) 95,74 %
25.07.2018 19:36 31,2 C 30,6 C 28,9 C 50 % 1011,5 hPa 0,0 l/m 2 min 0 min 197 W/m 13,5 km/h (3 Bft) 95,65 %
25.07.2018 19:38 31,1 C 30,6 C 28,9 C 50 % 1011,5 hPa 0,0 l/m 2 min 0 min 210 W/m 9,0 km/h (2 Bft) 95,74 %
25.07.2018 19:40 31,2 C 30,6 C 28,9 C 51 % 1011,5 hPa 0,0 l/m 2 min 0 min 188 W/m 4,5 km/h (1 Bft) 95,74 %
25.07.2018 19:42 31,2 C 30,6 C 28,9 C 51 % 1011,6 hPa 0,0 l/m 2 min 0 min 184 W/m 9,0 km/h (2 Bft) 93,62 %
25.07.2018 19:44 31,2 C 30,6 C 28,9 C 51 % 1011,6 hPa 0,0 l/m 2 min 0 min 179 W/m 9,0 km/h (2 Bft) 95,74 %
25.07.2018 19:46 31,2 C 30,6 C 28,3 C 51 % 1011,6 hPa 0,0 l/m 2 min 0 min 172 W/m 11,3 km/h (2 Bft) 95,74 %
25.07.2018 19:48 31,1 C 30,6 C 28,9 C 51 % 1011,7 hPa 0,0 l/m 2 min 0 min 166 W/m 15,8 km/h (3 Bft) 95,65 %
25.07.2018 19:50 31,1 C 30,6 C 28,3 C 51 % 1011,6 hPa 0,0 l/m 2 min 0 min 152 W/m 6,8 km/h (2 Bft) 97,87 %
25.07.2018 19:52 31,1 C 30,0 C 28,3 C 51 % 1011,6 hPa 0,0 l/m 2 min 0 min 137 W/m 9,0 km/h (2 Bft) 95,74 %
25.07.2018 19:54 31,1 C 30,0 C 28,3 C 51 % 1011,6 hPa 0,0 l/m 2 min 0 min 128 W/m 4,5 km/h (1 Bft) 97,87 %
25.07.2018 19:56 31,1 C 30,0 C 28,3 C 50 % 1011,5 hPa 0,0 l/m 2 min 0 min 117 W/m 6,8 km/h (2 Bft) 97,14 %
25.07.2018 19:58 31,1 C 30,0 C 28,3 C 51 % 1011,6 hPa 0,0 l/m 2 min 0 min 109 W/m 2,3 km/h (1 Bft) 96,61 %
25.07.2018 20:00 31,0 C 30,0 C 27,8 C 52 % 1011,6 hPa 0,0 l/m 0 min 0 min 102 W/m 4,5 km/h (1 Bft) 97,87 %
25.07.2018 20:02 31,0 C 30,0 C 27,8 C 51 % 1011,7 hPa 0,0 l/m 0 min 0 min 98 W/m 6,8 km/h (2 Bft) 97,87 %
25.07.2018 20:04 31,0 C 29,4 C 27,8 C 52 % 1011,8 hPa 0,0 l/m 0 min 0 min 89 W/m 4,5 km/h (1 Bft) 95,65 %
25.07.2018 20:06 30,9 C 29,4 C 27,8 C 52 % 1011,8 hPa 0,0 l/m 0 min 0 min 87 W/m 4,5 km/h (1 Bft) 97,87 %
25.07.2018 20:08 30,9 C 29,4 C 27,8 C 51 % 1011,8 hPa 0,0 l/m 0 min 0 min 90 W/m 6,8 km/h (2 Bft) 97,87 %
25.07.2018 20:10 30,9 C 29,4 C 27,8 C 51 % 1011,9 hPa 0,0 l/m 0 min 0 min 85 W/m 11,3 km/h (2 Bft) 97,87 %
25.07.2018 20:12 30,8 C 29,4 C 27,8 C 51 % 1011,9 hPa 0,0 l/m 0 min 0 min 73 W/m 6,8 km/h (2 Bft) 100,00 %
25.07.2018 20:14 30,8 C 29,4 C 27,8 C 52 % 1011,9 hPa 0,0 l/m 0 min 0 min 65 W/m 9,0 km/h (2 Bft) 97,87 %
25.07.2018 20:16 30,7 C 28,9 C 27,8 C 52 % 1011,9 hPa 0,0 l/m 0 min 0 min 61 W/m 9,0 km/h (2 Bft) 95,65 %
25.07.2018 20:18 30,7 C 28,9 C 27,8 C 53 % 1011,9 hPa 0,0 l/m 0 min 0 min 53 W/m 4,5 km/h (1 Bft) 95,74 %
25.07.2018 20:20 30,6 C 28,9 C 27,8 C 53 % 1012,0 hPa 0,0 l/m 0 min 0 min 48 W/m 6,8 km/h (2 Bft) 95,74 %
25.07.2018 20:22 30,6 C 28,9 C 27,2 C 53 % 1012,0 hPa 0,0 l/m 0 min 0 min 45 W/m 6,8 km/h (2 Bft) 94,29 %
25.07.2018 20:24 30,5 C 28,3 C 27,2 C 54 % 1012,1 hPa 0,0 l/m 0 min 0 min 44 W/m 11,3 km/h (2 Bft) 95,74 %
25.07.2018 20:26 30,4 C 28,3 C 27,2 C 54 % 1012,1 hPa 0,0 l/m 0 min 0 min 40 W/m 11,3 km/h (2 Bft) 95,74 %
25.07.2018 20:28 30,4 C 28,3 C 27,2 C 54 % 1012,1 hPa 0,0 l/m 0 min 0 min 39 W/m 6,8 km/h (2 Bft) 95,74 %
25.07.2018 20:30 30,3 C 28,3 C 27,2 C 55 % 1012,1 hPa 0,0 l/m 0 min 0 min 38 W/m 4,5 km/h (1 Bft) 95,74 %
25.07.2018 20:32 30,3 C 27,8 C 27,2 C 55 % 1012,2 hPa 0,0 l/m 0 min 0 min 35 W/m 6,8 km/h (2 Bft) 95,65 %
25.07.2018 20:34 30,2 C 27,8 C 26,7 C 56 % 1012,0 hPa 0,0 l/m 0 min 0 min 33 W/m 6,8 km/h (2 Bft) 97,87 %
25.07.2018 20:36 30,1 C 27,8 C 26,7 C 57 % 1012,1 hPa 0,0 l/m 0 min 0 min 32 W/m 4,5 km/h (1 Bft) 97,87 %
25.07.2018 20:38 30,1 C 27,8 C 26,7 C 57 % 1012,1 hPa 0,0 l/m 0 min 0 min 32 W/m 4,5 km/h (1 Bft) 97,87 %
25.07.2018 20:40 29,9 C 27,8 C 26,7 C 57 % 1012,1 hPa 0,0 l/m 0 min 0 min 32 W/m 4,5 km/h (1 Bft) 97,87 %
25.07.2018 20:42 29,8 C 27,2 C 26,7 C 58 % 1012,1 hPa 0,0 l/m 0 min 0 min 32 W/m 2,3 km/h (1 Bft) 96,23 %
25.07.2018 20:44 29,8 C 27,2 C 26,1 C 58 % 1012,2 hPa 0,0 l/m 0 min 0 min 31 W/m 4,5 km/h (1 Bft) 97,87 %
25.07.2018 20:46 29,7 C 27,2 C 26,1 C 58 % 1012,2 hPa 0,0 l/m 0 min 0 min 30 W/m 6,8 km/h (2 Bft) 97,87 %
25.07.2018 20:48 29,6 C 27,2 C 26,1 C 58 % 1012,2 hPa 0,0 l/m 0 min 0 min 30 W/m 4,5 km/h (1 Bft) 97,83 %
25.07.2018 20:50 29,5 C 27,2 C 26,1 C 58 % 1012,2 hPa 0,0 l/m 0 min 0 min 30 W/m 4,5 km/h (1 Bft) 95,74 %
25.07.2018 20:52 29,4 C 27,2 C 26,1 C 58 % 1012,3 hPa 0,0 l/m 0 min 0 min 26 W/m 4,5 km/h (1 Bft) 97,92 %
25.07.2018 20:54 29,3 C 27,2 C 26,1 C 58 % 1012,3 hPa 0,0 l/m 0 min 0 min 25 W/m 6,8 km/h (2 Bft) 97,87 %
25.07.2018 20:56 29,3 C 27,2 C 26,1 C 58 % 1012,3 hPa 0,0 l/m 0 min 0 min 23 W/m 4,5 km/h (1 Bft) 97,87 %
25.07.2018 20:58 29,2 C 27,2 C 26,1 C 58 % 1012,3 hPa 0,0 l/m 0 min 0 min 23 W/m 2,3 km/h (1 Bft) 97,87 %
25.07.2018 21:00 29,1 C 27,2 C 26,1 C 59 % 1012,4 hPa 0,0 l/m 0 min 0 min 21 W/m 4,5 km/h (1 Bft) 97,83 %
25.07.2018 21:02 29,1 C 27,2 C 26,1 C 59 % 1012,4 hPa 0,0 l/m 0 min 0 min 19 W/m 2,3 km/h (1 Bft) 96,00 %
25.07.2018 21:04 29,0 C 26,7 C 26,1 C 59 % 1012,4 hPa 0,0 l/m 0 min 0 min 19 W/m 4,5 km/h (1 Bft) 97,87 %
25.07.2018 21:06 28,9 C 26,7 C 25,6 C 59 % 1012,5 hPa 0,0 l/m 0 min 0 min 18 W/m 2,3 km/h (1 Bft) 95,74 %
25.07.2018 21:08 28,8 C 26,7 C 25,6 C 60 % 1012,6 hPa 0,0 l/m 0 min 0 min 17 W/m 2,3 km/h (1 Bft) 95,74 %
25.07.2018 21:10 28,8 C 26,7 C 25,6 C 60 % 1012,6 hPa 0,0 l/m 0 min 0 min 16 W/m 4,5 km/h (1 Bft) 97,83 %
25.07.2018 21:12 28,7 C 26,7 C 25,6 C 60 % 1012,6 hPa 0,0 l/m 0 min 0 min 14 W/m 0,0 km/h (0 Bft) 97,30 %
25.07.2018 21:14 28,7 C 26,7 C 25,6 C 60 % 1012,6 hPa 0,0 l/m 0 min 0 min 12 W/m 2,3 km/h (1 Bft) 100,00 %
25.07.2018 21:16 28,6 C 26,7 C 25,0 C 61 % 1012,6 hPa 0,0 l/m 0 min 0 min 12 W/m 2,3 km/h (1 Bft) 100,00 %
25.07.2018 21:18 28,6 C 26,7 C 25,6 C 60 % 1012,6 hPa 0,0 l/m 0 min 0 min 11 W/m 4,5 km/h (1 Bft) 100,00 %
25.07.2018 21:20 28,5 C 26,7 C 25,6 C 60 % 1012,6 hPa 0,0 l/m 0 min 0 min 11 W/m 2,3 km/h (1 Bft) 97,87 %
25.07.2018 21:22 28,4 C 26,7 C 25,6 C 61 % 1012,7 hPa 0,0 l/m 0 min 0 min 11 W/m 6,8 km/h (2 Bft) 100,00 %
25.07.2018 21:24 28,4 C 26,7 C 25,6 C 60 % 1012,7 hPa 0,0 l/m 0 min 0 min 9 W/m 4,5 km/h (1 Bft) 100,00 %
25.07.2018 21:26 28,4 C 26,7 C 25,6 C 60 % 1012,7 hPa 0,0 l/m 0 min 0 min 9 W/m 4,5 km/h (1 Bft) 100,00 %
25.07.2018 21:28 28,3 C 26,7 C 25,6 C 60 % 1012,8 hPa 0,0 l/m 0 min 0 min 8 W/m 2,3 km/h (1 Bft) 100,00 %
25.07.2018 21:30 28,3 C 26,7 C 25,0 C 61 % 1012,8 hPa 0,0 l/m 0 min 0 min 7 W/m 4,5 km/h (1 Bft) 97,83 %
25.07.2018 21:32 28,2 C 26,7 C 25,0 C 61 % 1012,8 hPa 0,0 l/m 0 min 0 min 6 W/m 4,5 km/h (1 Bft) 100,00 %
25.07.2018 21:34 28,2 C 26,7 C 25,0 C 61 % 1012,8 hPa 0,0 l/m 0 min 0 min 5 W/m 0,0 km/h (0 Bft) 100,00 %
25.07.2018 21:36 28,2 C 26,1 C 24,4 C 63 % 1012,8 hPa 0,0 l/m 0 min 0 min 5 W/m 4,5 km/h (1 Bft) 97,87 %
25.07.2018 21:38 28,1 C 26,1 C 24,4 C 62 % 1012,9 hPa 0,0 l/m 0 min 0 min 4 W/m 2,3 km/h (1 Bft) 97,87 %
25.07.2018 21:40 28,0 C 26,1 C 24,4 C 62 % 1012,9 hPa 0,0 l/m 0 min 0 min 0 W/m 2,3 km/h (1 Bft) 97,87 %
25.07.2018 21:42 28,0 C 26,1 C 24,4 C 63 % 1012,9 hPa 0,0 l/m 0 min 0 min 0 W/m 4,5 km/h (1 Bft) 95,65 %
25.07.2018 21:44 27,9 C 26,1 C 24,4 C 63 % 1012,9 hPa 0,0 l/m 0 min 0 min 0 W/m 4,5 km/h (1 Bft) 95,74 %
25.07.2018 21:46 27,8 C 25,6 C 24,4 C 63 % 1013,0 hPa 0,0 l/m 0 min 0 min 0 W/m 4,5 km/h (1 Bft) 97,87 %
25.07.2018 21:48 27,8 C 25,6 C 24,4 C 63 % 1013,0 hPa 0,0 l/m 0 min 0 min 0 W/m 6,8 km/h (2 Bft) 95,74 %
25.07.2018 21:50 27,7 C 25,6 C 25,0 C 62 % 1013,0 hPa 0,0 l/m 0 min 0 min 0 W/m 13,5 km/h (3 Bft) 97,87 %
25.07.2018 21:52 27,6 C 26,1 C 25,0 C 62 % 1013,1 hPa 0,0 l/m 0 min 0 min 0 W/m 18,0 km/h (3 Bft) 97,87 %
25.07.2018 21:54 27,5 C 26,1 C 25,0 C 62 % 1013,1 hPa 0,0 l/m 0 min 0 min 0 W/m 11,3 km/h (2 Bft) 97,83 %
25.07.2018 21:56 27,4 C 26,1 C 25,0 C 62 % 1013,1 hPa 0,0 l/m 0 min 0 min 0 W/m 6,8 km/h (2 Bft) 97,87 %
25.07.2018 21:58 27,4 C 26,1 C 25,0 C 62 % 1013,0 hPa 0,0 l/m 0 min 0 min 0 W/m 11,3 km/h (2 Bft) 97,87 %
25.07.2018 22:00 27,3 C 25,6 C 25,0 C 62 % 1013,2 hPa 0,0 l/m 0 min 0 min 0 W/m 9,0 km/h (2 Bft) 97,87 %
25.07.2018 22:02 27,3 C 25,6 C 25,0 C 62 % 1013,1 hPa 0,0 l/m 0 min 0 min 0 W/m 11,3 km/h (2 Bft) 97,87 %
25.07.2018 22:04 27,2 C 25,6 C 25,0 C 62 % 1013,1 hPa 0,0 l/m 0 min 0 min 0 W/m 11,3 km/h (2 Bft) 95,74 %
25.07.2018 22:06 27,2 C 25,6 C 25,0 C 63 % 1013,1 hPa 0,0 l/m 0 min 0 min 0 W/m 4,5 km/h (1 Bft) 97,83 %
25.07.2018 22:08 27,2 C 25,6 C 25,0 C 63 % 1013,0 hPa 0,0 l/m 0 min 0 min 0 W/m 4,5 km/h (1 Bft) 95,74 %
25.07.2018 22:10 27,1 C 25,6 C 25,0 C 63 % 1013,0 hPa 0,0 l/m 0 min 0 min 0 W/m 9,0 km/h (2 Bft) 97,87 %
25.07.2018 22:12 27,1 C 25,6 C 25,0 C 63 % 1013,0 hPa 0,0 l/m 0 min 0 min 0 W/m 9,0 km/h (2 Bft) 97,87 %
25.07.2018 22:14 27,0 C 25,6 C 25,0 C 63 % 1013,0 hPa 0,0 l/m 0 min 0 min 0 W/m 18,0 km/h (3 Bft) 97,87 %
25.07.2018 22:16 26,9 C 25,6 C 25,0 C 63 % 1013,0 hPa 0,0 l/m 0 min 0 min 0 W/m 11,3 km/h (2 Bft) 95,65 %
25.07.2018 22:18 26,9 C 25,6 C 25,0 C 63 % 1013,0 hPa 0,0 l/m 0 min 0 min 0 W/m 9,0 km/h (2 Bft) 95,74 %
25.07.2018 22:20 26,8 C 25,0 C 24,4 C 63 % 1013,0 hPa 0,0 l/m 0 min 0 min 0 W/m 11,3 km/h (2 Bft) 97,87 %
25.07.2018 22:22 26,8 C 25,0 C 24,4 C 64 % 1013,0 hPa 0,0 l/m 0 min 0 min 0 W/m 6,8 km/h (2 Bft) 100,00 %
25.07.2018 22:24 26,8 C 25,0 C 24,4 C 64 % 1013,0 hPa 0,0 l/m 0 min 0 min 0 W/m 9,0 km/h (2 Bft) 100,00 %
25.07.2018 22:26 26,7 C 25,0 C 24,4 C 64 % 1012,9 hPa 0,0 l/m 0 min 0 min 0 W/m 6,8 km/h (2 Bft) 100,00 %
25.07.2018 22:28 26,7 C 25,0 C 24,4 C 64 % 1013,0 hPa 0,0 l/m 0 min 0 min 0 W/m 4,5 km/h (1 Bft) 97,83 %
25.07.2018 22:30 26,7 C 25,0 C 24,4 C 64 % 1013,0 hPa 0,0 l/m 0 min 0 min 0 W/m 2,3 km/h (1 Bft) 100,00 %
25.07.2018 22:32 26,6 C 25,0 C 24,4 C 64 % 1013,0 hPa 0,0 l/m 0 min 0 min 0 W/m 4,5 km/h (1 Bft) 100,00 %
25.07.2018 22:34 26,6 C 25,0 C 24,4 C 64 % 1013,0 hPa 0,0 l/m 0 min 0 min 0 W/m 2,3 km/h (1 Bft) 100,00 %
25.07.2018 22:36 26,6 C 24,4 C 24,4 C 65 % 1012,9 hPa 0,0 l/m 0 min 0 min 0 W/m 4,5 km/h (1 Bft) 97,87 %
25.07.2018 22:38 26,5 C 24,4 C 23,9 C 65 % 1012,9 hPa 0,0 l/m 0 min 0 min 0 W/m 2,3 km/h (1 Bft) 93,62 %
25.07.2018 22:40 26,5 C 24,4 C 23,9 C 65 % 1013,0 hPa 0,0 l/m 0 min 0 min 0 W/m 6,8 km/h (2 Bft) 100,00 %
25.07.2018 22:42 26,4 C 24,4 C 23,9 C 65 % 1013,0 hPa 0,0 l/m 0 min 0 min 0 W/m 4,5 km/h (1 Bft) 100,00 %
25.07.2018 22:44 26,4 C 24,4 C 23,9 C 66 % 1013,1 hPa 0,0 l/m 0 min 0 min 0 W/m 2,3 km/h (1 Bft) 97,87 %
25.07.2018 22:46 26,3 C 24,4 C 23,9 C 65 % 1013,1 hPa 0,0 l/m 0 min 0 min 0 W/m 9,0 km/h (2 Bft) 97,87 %
25.07.2018 22:48 26,3 C 24,4 C 23,9 C 66 % 1013,0 hPa 0,0 l/m 0 min 0 min 0 W/m 2,3 km/h (1 Bft) 100,00 %
25.07.2018 22:50 26,2 C 23,9 C 23,9 C 66 % 1013,1 hPa 0,0 l/m 0 min 0 min 0 W/m 2,3 km/h (1 Bft) 100,00 %
25.07.2018 22:52 26,2 C 23,9 C 23,9 C 66 % 1013,2 hPa 0,0 l/m 0 min 0 min 0 W/m 4,5 km/h (1 Bft) 97,83 %
25.07.2018 22:54 26,2 C 24,4 C 23,9 C 66 % 1013,1 hPa 0,0 l/m 0 min 0 min 0 W/m 6,8 km/h (2 Bft) 95,74 %
25.07.2018 22:56 26,1 C 23,9 C 23,9 C 66 % 1013,1 hPa 0,0 l/m 0 min 0 min 0 W/m 0,0 km/h (0 Bft) 97,87 %
25.07.2018 22:58 26,1 C 23,9 C 23,9 C 67 % 1013,1 hPa 0,0 l/m 0 min 0 min 0 W/m 2,3 km/h (1 Bft) 97,87 %
25.07.2018 23:00 26,0 C 23,9 C 23,3 C 67 % 1013,1 hPa 0,0 l/m 0 min 0 min 0 W/m 0,0 km/h (0 Bft) 97,87 %
25.07.2018 23:02 25,9 C 23,9 C 23,3 C 67 % 1013,0 hPa 0,0 l/m 0 min 0 min 0 W/m 2,3 km/h (1 Bft) 95,74 %
25.07.2018 23:04 25,9 C 23,9 C 23,3 C 67 % 1013,1 hPa 0,0 l/m 0 min 0 min 0 W/m 2,3 km/h (1 Bft) 97,83 %
25.07.2018 23:06 25,9 C 23,9 C 23,3 C 67 % 1013,1 hPa 0,0 l/m 0 min 0 min 0 W/m 2,3 km/h (1 Bft) 97,87 %
25.07.2018 23:08 25,8 C 23,9 C 23,3 C 67 % 1013,0 hPa 0,0 l/m 0 min 0 min 0 W/m 2,3 km/h (1 Bft) 97,87 %
25.07.2018 23:10 25,8 C 23,9 C 23,3 C 68 % 1013,1 hPa 0,0 l/m 0 min 0 min 0 W/m 2,3 km/h (1 Bft) 97,87 %
25.07.2018 23:12 25,7 C 23,9 C 23,3 C 68 % 1013,1 hPa 0,0 l/m 0 min 0 min 0 W/m 6,8 km/h (2 Bft) 96,23 %
25.07.2018 23:14 25,6 C 23,9 C 23,3 C 68 % 1013,1 hPa 0,0 l/m 0 min 0 min 0 W/m 6,8 km/h (2 Bft) 97,87 %
25.07.2018 23:16 25,6 C 23,9 C 23,3 C 68 % 1013,1 hPa 0,0 l/m 0 min 0 min 0 W/m 2,3 km/h (1 Bft) 97,87 %
25.07.2018 23:18 25,6 C 23,9 C 23,3 C 68 % 1013,0 hPa 0,0 l/m 0 min 0 min 0 W/m 4,5 km/h (1 Bft) 95,74 %
25.07.2018 23:20 25,5 C 23,9 C 23,3 C 68 % 1013,0 hPa 0,0 l/m 0 min 0 min 0 W/m 2,3 km/h (1 Bft) 97,83 %
25.07.2018 23:22 25,4 C 23,3 C 23,3 C 69 % 1013,0 hPa 0,0 l/m 0 min 0 min 0 W/m 0,0 km/h (0 Bft) 97,87 %
25.07.2018 23:24 25,4 C 23,3 C 23,3 C 69 % 1013,0 hPa 0,0 l/m 0 min 0 min 0 W/m 4,5 km/h (1 Bft) 97,87 %
25.07.2018 23:26 25,4 C 23,3 C 23,3 C 69 % 1013,0 hPa 0,0 l/m 0 min 0 min 0 W/m 4,5 km/h (1 Bft) 95,74 %
25.07.2018 23:28 25,3 C 23,3 C 23,3 C 69 % 1013,1 hPa 0,0 l/m 0 min 0 min 0 W/m 4,5 km/h (1 Bft) 95,74 %
25.07.2018 23:30 25,3 C 23,3 C 23,3 C 69 % 1013,1 hPa 0,0 l/m 0 min 0 min 0 W/m 2,3 km/h (1 Bft) 93,62 %
25.07.2018 23:32 25,2 C 23,3 C 23,3 C 69 % 1013,1 hPa 0,0 l/m 0 min 0 min 0 W/m 2,3 km/h (1 Bft) 95,65 %
25.07.2018 23:34 25,2 C 23,3 C 23,3 C 69 % 1013,1 hPa 0,0 l/m 0 min 0 min 0 W/m 4,5 km/h (1 Bft) 95,74 %
25.07.2018 23:36 25,1 C 23,3 C 23,3 C 69 % 1013,0 hPa 0,0 l/m 0 min 0 min 0 W/m 0,0 km/h (0 Bft) 95,74 %
25.07.2018 23:38 25,1 C 23,3 C 23,3 C 70 % 1013,0 hPa 0,0 l/m 0 min 0 min 0 W/m 0,0 km/h (0 Bft) 95,74 %
25.07.2018 23:40 25,1 C 23,3 C 23,3 C 70 % 1013,0 hPa 0,0 l/m 0 min 0 min 0 W/m 2,3 km/h (1 Bft) 95,74 %
25.07.2018 23:42 25,1 C 23,3 C 23,3 C 70 % 1013,1 hPa 0,0 l/m 0 min 0 min 0 W/m 2,3 km/h (1 Bft) 95,74 %
25.07.2018 23:44 25,0 C 23,3 C 23,3 C 71 % 1013,1 hPa 0,0 l/m 0 min 0 min 0 W/m 2,3 km/h (1 Bft) 93,48 %
25.07.2018 23:46 25,0 C 23,3 C 23,3 C 71 % 1013,1 hPa 0,0 l/m 0 min 0 min 0 W/m 2,3 km/h (1 Bft) 95,74 %
25.07.2018 23:48 24,9 C 23,3 C 22,8 C 71 % 1013,0 hPa 0,0 l/m 0 min 0 min 0 W/m 2,3 km/h (1 Bft) 93,62 %
25.07.2018 23:50 24,9 C 23,3 C 22,8 C 71 % 1013,1 hPa 0,0 l/m 0 min 0 min 0 W/m 2,3 km/h (1 Bft) 95,74 %
25.07.2018 23:52 24,8 C 22,8 C 22,8 C 71 % 1013,0 hPa 0,0 l/m 0 min 0 min 0 W/m 4,5 km/h (1 Bft) 97,87 %
25.07.2018 23:54 24,8 C 22,8 C 22,8 C 72 % 1013,0 hPa 0,0 l/m 0 min 0 min 0 W/m 2,3 km/h (1 Bft) 95,74 %
25.07.2018 23:56 24,8 C 22,8 C 22,8 C 72 % 1012,9 hPa 0,0 l/m 0 min 0 min 0 W/m 2,3 km/h (1 Bft) 97,83 %
25.07.2018 23:58 24,7 C 22,8 C 22,8 C 72 % 1013,0 hPa 0,0 l/m 0 min 0 min 0 W/m 2,3 km/h (1 Bft) 97,87 %
_ Min-Zeit 07:16 07:42 07:38 16:06 00:00 - - - - 01:28 04:02
Minimum _ 20,1 C 18,3 C 17,8 C 45 % 1011,2 hPa - - - - 0,0 km/h (0 Bft) 90,91 %
_ Max-Zeit 16:08 13:18 15:46 07:50 10:32 08:32 11:38 16:14 15:38 14:22 00:00
Maximum _ 34,4 C 40,6 C 31,7 C 88 % 1013,4 hPa 0,2 l/m 4 min 2 min 890 W/m 20,3 km/h
W (4 Bft)
100,00 %
Durchschnitt _ 26,8 C 26,7 C 24,5 C 67 % 1012,2 hPa #0,6 l/m #9:26 h #34 min. 370 W/m 6,3 km/h (2 Bft) 97,54 %
© 2018 W. Hausmann